     2.10           OBSERVATION DATA    G (GPS)             RINEX VERSION / TYPE
teqc 2000Jul20 Karen Wendt 20040524 19:27:30UTC             PGM / RUN BY / DATE
Linux 2.0.36|Pentium II|gcc -static|Linux|486/DX+           COMMENT
teqc 2000Jul20 Karen Wendt 20040524 19:27:29UTC             COMMENT
BIT 2 OF LLI FLAGS DATA COLLECTED UNDER A/S CONDITION       COMMENT
blab Black_Butte_1951_USC&GS_(Reno_Net)                     MARKER NAME
CHS USGS                                                    OBSERVER / AGENCY
ZE120023202 ASHTECH UZ-12 ZE00                              REC # / TYPE / VERS
CR520031615 ASH701945E_M NONE                               ANT # / TYPE
 -2391405.0000 -4303960.0000  4043002.0000                  APPROX POSITION XYZ
        1.2582        0.0000        0.0000                  ANTENNA: DELTA H/E/N
     1     1                                                WAVELENGTH FACT L1/2
     5    C1    L1    L2    P1    P2                        # / TYPES OF OBSERV
    30.0000                                                 INTERVAL
                                                            COMMENT
National Earthquake Hazard Reduction Program                COMMENT
Crustal Strain Project                                      COMMENT
345 Middlefield Road, MS/977                                COMMENT
U.S. Geological Survey, Menlo Park, California 94025        COMMENT
Contact: kwendt@usgs.gov (Ph: 650-329-4866)                 COMMENT
Antenna height is vertical to base of antenna               COMMENT
                                                            COMMENT
SNR is mapped to RINEX snr flag value [1-9]                 COMMENT
L1: 1 -> 1; 90 -> 5; 210 -> 9                               COMMENT
L2: 1 -> 1; 150 -> 5; 250 -> 9                              COMMENT
  2004     5    14    16     9    0.0000000     GPS         TIME OF FIRST OBS
                                                            END OF HEADER
 04  5 14 16  9  0.0000000  0  8G24G21G17G 5G 6G30G29G10
  24200657.767     6569451.36153   5112121.14052  24200658.401    24200656.536
  22794935.650     -143264.36753   -100557.58652  22794936.981    22794932.943
  21327523.367     6512241.57953   5069826.03152  21327524.143    21327521.366
  23258052.021     6671018.03553   5187242.62052  23258053.331    23258051.459
  20650736.585     6265706.29154   4885512.90752  20650738.040    20650734.558
  20972981.320     6535997.62754   5075458.57952  20972983.219    20972979.448
  24491573.130     6179099.68653   4821778.17652  24491574.286    24491573.535
  21117233.787     6482211.63553   5042110.57352  21117234.523    21117231.681
 04  5 14 16  9 30.0000000  0  8G24G21G17G 5G 6G30G29G10
  24216931.653     6654972.40543   5178760.86542  24216932.501    24216930.807
  22780775.914     -217673.68543   -158538.83842  22780777.239    22780773.369
  21337269.552     6563458.06443   5109734.95842  21337270.305    21337267.546
  23278210.267     6776949.74243   5269786.72642  23278211.421    23278209.652
  20643854.469     6229540.76444   4857331.97442  20643855.990    20643852.483
  20984354.896     6595766.27644   5122031.52242  20984356.798    20984353.028
  24476691.571     6100897.40843   4760841.40942  24476693.035    24476691.832
  21124649.587     6521182.11943   5072477.17242  21124650.348    21124647.548
 04  5 14 16 10  0.0000000  0  8G24G21G17G 5G 6G30G29G10
  24233203.490     6740481.95143   5245391.62242  24233204.399    24233202.757
  22766652.495     -291892.50943   -216371.66842  22766653.799    22766650.016
  21347055.621     6614884.08043   5149807.15342  21347056.360    21347053.612
  23298394.909     6883020.26843   5352438.99542  23298395.990    23298394.260
  20637027.573     6193665.26544   4829377.04442  20637029.121    20637025.601
  20995822.478     6656028.81544   5168989.31142  20995824.384    20995820.622
  24461829.904     6022799.84343   4699986.23842  24461831.559    24461830.339
  21132176.187     6560734.89743   5103297.50742  21132176.984    21132174.195
 04  5 14 16 10 30.0000000  0  8G24G21G17G 5G 6G30G29G10
  24249472.635     6825976.97143   5312011.05842  24249473.671    24249472.028
  22752565.019     -365922.60743   -274057.42442  22752566.314    22752562.578
  21356880.874     6666515.82543   5190039.66042  21356881.549    21356878.817
  23318605.012     6989224.49843   5435195.43842  23318605.998    23318604.308
  20630255.655     6158078.75044   4801647.29342  20630257.253    20630253.715
  21007383.192     6716780.62744   5216328.35442  21007385.108    21007381.332
  24446988.285     5944807.43743   4639213.02442  24446990.048    24446988.822
  21139812.843     6600865.81943   5134568.34642  21139813.645    21139810.865
 04  5 14 16 11  0.0000000  0  8G24G21G17G 5G 6G30G29G10
  24265739.050     6911457.50543   5378619.21342  24265740.079    24265738.425
  22738513.770     -439762.29343   -331594.81142  22738515.064    22738511.355
  21366745.322     6718353.61043   5230432.71542  21366745.963    21366743.220
  23338840.307     7095561.16643   5518055.09042  23338841.252    23338839.588
  20623539.337     6122784.15544   4774145.01442  20623540.924    20623537.382
  21019036.878     6778020.99844   5264048.09442  21019038.804    21019035.018
  24432167.546     5866924.68943   4578525.25742  24432169.422    24432168.335
  21147559.420     6641574.38343   5166289.28942  21147560.224    21147557.454
 04  5 14 16 11 30.0000000  0  8G24G21G17G 5G 6G30G29G10
  24282003.832     6996929.48243   5445220.69642  24282004.913    24282003.255
  22724500.050     -513404.92443   -388978.63942  22724501.295    22724497.610
  21376649.971     6770402.76743   5270990.47842  21376650.621    21376647.884
  23359101.474     7202033.88443   5601020.74642  23359102.380    23359100.733
  20616880.165     6087789.78044   4746876.66642  20616881.762    20616878.165
  21030784.358     6839754.28044   5312151.91842  21030786.279    21030782.496
  24417369.501     5789161.10743   4517930.33742  24417371.505    24417370.462
  21155416.802     6682865.15143   5198463.90142  21155417.612    21155414.852
 04  5 14 16 12  0.0000000  0  8G24G21G17G 5G 6G30G29G10
  24298267.063     7082393.19343   5511815.73242  24298268.199    24298266.546
  22710524.047     -586849.19243   -446207.90042  22710525.307    22710521.618
  21386594.828     6822663.15843   5311712.83842  21386595.474    21386592.726
  23379388.309     7308641.26043   5684091.32242  23379389.192    23379387.507
  20610278.578     6053098.10544   4719844.19542  20610280.197    20610276.586
  21042625.445     6901979.54344   5360639.10742  21042627.374    21042623.608
  24402595.014     5711520.81543   4457431.50042  24402596.904    24402595.828
  21163384.868     6724737.54943   5231091.73142  21163385.686    21163382.940
 04  5 14 16 12 30.0000000  0  8G24G21G17G 5G 6G30G29G10
  24314528.391     7167846.64343   5578402.77042  24314529.465    24314527.915
  22696585.652     -660095.98743   -503283.29642  22696586.908    22696583.186
  21396579.344     6875131.88643   5352597.53942  21396579.962    21396577.207
  23399699.977     7415379.33743   5767263.77142  23399700.854    23399699.231
  20603734.553     6018708.79444   4693047.32842  20603736.171    20603732.533
  21054559.455     6964693.01344   5409506.71042  21054561.376    21054557.624
  24387844.333     5634005.53143   4397030.07342  24387846.159    24387845.128
  21171463.046     6767188.37543   5264170.27542  21171463.855    21171461.094
 04  5 14 16 13  0.0000000  0  8G24G21G17G 5G 6G30G29G10
  24330787.889     7253290.53343   5644982.36342  24330788.913    24330787.438
  22682685.222     -733143.36643   -560203.30842  22682686.464    22682682.724
  21406603.657     6927809.93343   5393645.34642  21406604.281    21406601.543
  23420036.331     7522247.28543   5850537.40242  23420037.202    23420035.605
  20597248.710     5984625.30744   4666488.77142  20597250.335    20597246.660
  21066586.341     7027894.49644   5458754.59042  21066588.268    21066584.518
  24373118.334     5556620.19943   4336729.90642  24373120.303    24373119.215
  21179651.285     6810217.69343   5297699.59842  21179652.110    21179649.317
 04  5 14 16 13 30.0000000  0  8G24G21G17G 5G 6G30G29G10
  24347044.332     7338718.58243   5711549.63142  24347045.418    24347044.001
  22668821.677     -805996.65543   -616972.07042  22668822.961    22668819.183
  21416666.551     6980690.44343   5434850.91342  21416667.119    21416664.404
  23440395.786     7629236.62843   5933905.64142  23440396.694    23440395.104
  20590820.319     5950843.78244   4640165.51042  20590821.966    20590818.280
  21078704.577     7091576.04243   5508376.54342  21078706.516    21078702.763
  24358416.563     5479362.19843   4276528.95142  24358418.501    24358417.382
  21187948.104     6853817.67443   5331673.60042  21187948.952    21187946.139
 04  5 14 16 14  0.0000000  0  8G24G21G17G 5G 6G30G29G10
  24363299.564     7424140.01543   5778111.70942  24363300.577    24363299.164
  22654997.083     -878645.18643   -673581.27642  22654998.386    22654994.637
  21426769.579     7033782.02843   5476220.95742  21426770.148    21426767.419
  23460779.783     7736354.88543   6017374.30242  23460780.710    23460779.123
  20584451.505     5917375.24044   4614086.12642  20584453.136    20584449.439
  21090915.676     7155745.57944   5558378.75442  21090917.621    21090913.871
  24343741.515     5402244.72843   4216437.50342  24343743.515    24343742.334
  21196355.128     6897996.69643   5366098.79642  21196355.955    21196353.137
 04  5 14 16 14 30.0000000  0  8G24G21G17G 5G 6G30G29G10
  24379551.285     7509542.77043   5844659.25242  24379552.232    24379550.788
  22641209.297     -951100.29943   -730039.77842  22641210.628    22641206.888
  21436910.380     7087072.24543   5517745.77642  21436910.967    21436908.251
  23481185.525     7843587.46843   6100932.06742  23481186.483    23481184.951
  20578140.376     5884209.87244   4588242.98842  20578141.987    20578138.280
  21103216.991     7220389.30144   5608750.45642  21103218.961    21103215.211
  24329091.627     5325259.25743   4156448.89842  24329093.595    24329092.389
  21204869.770     6942741.18643   5400964.61842  21204870.591    21204867.742
 04  5 14 16 15  0.0000000  0  8G24G21G17G 5G 6G30G29G10
  24395799.984     7594930.01943   5911194.71842  24395800.999    24395799.480
  22627459.192    -1023357.68943   -786344.20442  22627460.532    22627456.748
  21447089.538     7140564.03043   5559427.66242  21447090.137    21447087.451
  23501613.420     7950936.24343   6184580.35942  23501614.334    23501612.870
  20571887.980     5851353.22044   4562640.40242  20571889.592    20571885.855
  21115608.914     7285509.09043   5659493.11242  21115610.872    21115607.144
  24314468.255     5248412.88743   4096568.69642  24314470.191    24314468.928
  21213492.428     6988053.30643   5436272.74642  21213493.248    21213490.348
 04  5 14 16 15 30.0000000  0  8G24G21G17G 5G 6G30G29G10
  24412045.803     7680302.17443   5977718.41842  24412046.850    24412045.376
  22613746.914    -1095415.94443   -842493.45242  22613748.347    22613744.531
  21457306.989     7194257.10943   5601266.40642  21457307.590    21457304.954
  23522063.126     8058399.46343   6268317.82942  23522064.035    23522062.568
  20565694.824     5818807.92544   4537280.43442  20565696.453    20565692.688
  21128091.172     7351103.59643   5710605.68342  21128093.127    21128089.446
  24299872.029     5171709.71343   4036800.06942  24299874.073    24299872.788
  21222222.892     7033932.24843   5472022.55542  21222223.746    21222220.852
 04  5 14 16 16  0.0000000  0  8G24G21G17G 5G 6G30G29G10
  24428288.509     7765657.82743   6044229.25142  24428289.529    24428287.999
  22600072.519    -1167275.36343   -898487.77142  22600073.963    22600070.147
  21467562.413     7248149.64343   5643260.56542  21467563.032    21467560.396
  23542533.848     8165973.73943   6352141.84542  23542534.808    23542533.298
  20559560.974     5786574.35844   4512163.37242  20559562.633    20559558.873
  21140663.206     7417169.98643   5762085.95242  21140665.168    21140661.514
  24285303.545     5095152.23843   3977144.97842  24285305.580    24285304.334
  21231060.697     7080375.16643   5508211.82442  21231061.548    21231058.667
 04  5 14 16 16 30.0000000  0  8G24G21G17G 5G 6G30G29G10
  24444527.823     7850995.90843   6110726.39142  24444528.969    24444527.353
  22586435.997    -1238935.78743   -954327.02242  22586437.422    22586433.619
  21477855.523     7302240.19443   5685409.02442  21477856.147    21477853.533
  23563025.293     8273656.53443   6436050.41042  23563026.262    23563024.711
  20553486.796     5754654.28744   4487290.59742  20553488.456    20553484.684
  21153324.598     7483705.83543   5813932.03142  21153326.536    21153322.907
  24270763.366     5018743.41643   3917605.70842  24270765.393    24270764.124
  21240005.469     7127380.31543   5544839.19242  21240006.307    21240003.475
 04  5 14 16 17  0.0000000  0  8G24G21G17G 5G 6G30G29G10
  24460763.852     7936316.38743   6177209.82742  24460764.940    24460763.410
  22572837.492    -1310396.40043  -1010010.58042  22572838.974    22572835.083
  21488186.332     7356528.83143   5727711.83642  21488186.940    21488184.335
  23583536.987     8381445.90043   6520042.02242  23583537.976    23583536.448
  20547472.648     5723049.72744   4462663.67042  20547474.321    20547470.532
  21166075.046     7550709.68343   5866142.79142  21166077.004    21166073.326
  24256252.179     4942487.11643   3858185.28842  24256254.285    24256252.996
  21249056.957     7174946.09843   5581903.41942  21249057.780    21249054.983
 04  5 14 16 17 30.0000000  0  8G24G21G17G 5G 6G30G29G10
  24476995.926     8021615.98743   6243676.97442  24476996.980    24476995.515
  22559276.665    -1381659.13543  -1065539.95442  22559278.110    22559274.175
  21498554.035     7411011.30643   5770165.69342  21498554.625    21498552.036
  23604068.040     8489336.98343   6604112.88742  23604068.980    23604067.514
  20541518.325     5691759.54344   4438281.71342  20541520.005    20541516.223
  21178913.598     7618176.50043   5918714.30442  21178915.573    21178911.857
  24241770.127     4866383.74843   3798884.03842  24241772.193    24241770.902
  21258214.259     7223067.96343   5619400.96142  21258215.080    21258212.294
 04  5 14 16 18  0.0000000  0  8G24G21G17G 5G 6G30G29G10
  24493224.638     8106898.06543   6310130.48042  24493225.669    24493224.189
  22545754.257    -1452719.84843  -1120911.91042  22545755.694    22545751.715
  21508959.211     7465690.78543   5812773.06342  21508959.806    21508957.238
  23624618.597     8597330.47843   6688263.55742  23624619.485    23624618.109
  20535624.871     5660789.12444   4414148.92742  20535626.533    20535622.760
  21191840.575     7686107.95243   5971647.87642  21191842.566    21191838.800
  24227318.622     4790440.53243   3739707.58642  24227320.695    24227319.244
  21267477.764     7271748.05743   5657333.48342  21267478.627    21267475.839
 04  5 14 16 18 30.0000000  0  8G24G21G17G 5G 6G30G29G10
  24509448.758     8192156.04443   6376565.19842  24509449.741    24509448.349
  22532269.153    -1523584.48743  -1176131.08142  22532270.608    22532266.576
  21519400.512     7520560.02043   5855528.29042  21519401.082    21519398.539
  23645187.071     8705418.05843   6772487.55142  23645187.939    23645186.533
  20529791.453     5630134.26944   4390262.03042  20529793.146    20529789.343
  21204854.373     7754495.66843   6024936.97342  21204856.377    21204852.593
  24212896.978     4714654.47843   3680653.58442  24212899.077    24212897.590
  21276845.969     7320978.11143   5695694.54542  21276846.807    21276844.039
 04  5 14 16 19  0.0000000  0  8G24G21G17G 5G 6G30G29G10
  24525670.047     8277399.20143   6442988.38042  24525671.036    24525669.690
  22518823.332    -1594242.58443  -1231189.30442  22518824.776    22518820.781
  21529879.608     7575627.86443   5898438.27342  21529880.142    21529877.671
  23665774.807     8813607.21043   6856790.67842  23665775.627    23665774.372
  20524020.245     5599806.37644   4366629.91242  20524021.922    20524018.178
  21217956.414     7823347.38143   6078587.63542  21217958.428    21217954.735
  24198507.783     4639038.65243   3621732.21942  24198509.800    24198508.355
  21286320.330     7370766.16843   5734490.42042  21286321.164    21286318.442
 04  5 14 16 19 30.0000000  0  9G24G21G18G17G 5G 6G30G29G10
  24541884.714     2060929.70253   1598986.13052  24541884.827    24541884.586
  22505413.626    -1664711.02743  -1286099.73942  22505415.018    22505411.056
  24792058.563    -1915537.76753  -1476702.09352  24792060.320    24792060.248
  21540393.028     7630875.94043   5941488.70042  21540393.537    21540391.089
  23686378.144     8921877.96243   6941157.40642  23686378.907    23686377.792
  20518308.250     5569789.53344   4343240.16642  20518309.922    20518306.181
  21231143.083     7892643.50643   6132584.58242  21231145.067    21231141.413
  24184148.206     4563578.84143   3562932.42642  24184150.197    24184148.673
  21295897.210     7421092.82043   5773705.97342  21295898.030    21295895.336
 04  5 14 16 20  0.0000000  0  9G24G21G18G17G 5G 6G30G29G10
  24558097.532     2146126.50343   1665373.16942  24558098.473    24558097.450
  22492043.783    -1734969.93243  -1340846.90842  22492045.193    22492041.230
  24770765.783    -2027430.86743  -1563891.36742  24770767.634    24770767.599
  21550944.283     7686323.00743   5984694.18242  21550944.779    21550942.356
  23707000.297     9030247.45143   7025601.06142  23707001.059    23706999.933
  20512659.432     5540104.84344   4320109.24342  20512661.093    20512657.383
  21244417.583     7962401.25943   6186941.24242  21244419.554    21244415.916
  24169822.688     4488298.01543   3504272.11542  24169824.589    24169823.217
  21305579.901     7471975.52043   5813354.82042  21305580.701    21305578.031
 04  5 14 16 20 30.0000000  0  9G24G21G18G17G 5G 6G30G29G10
  24574305.374     2231298.80143   1731741.12942  24574306.244    24574305.383
  22478711.977    -1805028.89143  -1395438.26542  22478713.395    22478709.437
  24749479.844    -2139288.54043  -1651053.01142  24749481.648    24749481.611
  21561531.266     7741957.89043   6028046.01442  21561531.772    21561529.374
  23727638.818     9138702.87843   7110111.67942  23727639.596    23727638.440
  20507072.219     5510743.80444   4297230.51842  20507073.863    20507070.163
  21257777.586     8032608.39343   6241648.06742  21257779.542    21257775.908
  24155529.878     4413189.10943   3445745.76042  24155531.685    24155530.388
  21315366.113     7523402.37843   5853427.68642  21315366.929    21315364.253
 04  5 14 16 21  0.0000000  0  9G24G21G18G17G 5G 6G30G29G10
  24590508.833     2316448.20943   1798091.26242  24590509.779    24590508.900
  22465418.659    -1874885.51643  -1449871.95942  22465420.092    22465416.123
  24728201.562    -2251106.15443  -1738183.49542  24728203.372    24728203.243
  21572154.187     7797781.74343   6071545.09542  21572154.744    21572152.355
  23748293.611     9247244.24743   7194689.26942  23748294.377    23748293.258
  20501547.370     5481710.48344   4274607.16042  20501548.999    20501545.297
  21271223.067     8103264.73143   6296704.91742  21271225.027    21271221.402
  24141270.854     4338257.65443   3387357.68242  24141272.625    24141271.281
  21325255.884     7575373.52743   5893924.67342  21325256.723    21325254.028
 04  5 14 16 21 30.0000000  0  9G24G21G18G17G 5G 6G30G29G10
  24606708.066     2401575.55443   1864424.19842  24606708.955    24606708.102
  22452164.208    -1944538.16143  -1504146.70942  22452165.608    22452161.652
  24706931.593    -2362879.99543  -1825279.83042  24706933.201    24706933.194
  21582813.096     7853794.65843   6115191.49542  21582813.658    21582811.287
  23768964.468     9355870.02743   7279332.61942  23768965.315    23768964.190
  20496085.283     5453007.05144   4252240.85642  20496086.914    20496083.222
  21284753.793     8174369.07743   6352110.86642  21284755.748    21284752.155
  24127046.421     4263507.81943   3329111.12242  24127048.170    24127046.886
  21335249.117     7627888.16843   5934845.15642  21335249.926    21335247.230
 04  5 14 16 22  0.0000000  0  9G24G21G18G17G 5G 6G30G29G10
  24622901.591     2486672.96443   1930733.80342  24622902.541    24622901.650
  22438947.310    -2013993.55143  -1558267.75442  22438948.687    22438944.698
  24685668.951    -2474615.08943  -1912345.98142  24685670.494    24685670.362
  21593506.454     7909988.45943   6158978.84942  21593507.018    21593504.644
  23789649.518     9464570.56643   7364034.22442  23789650.385    23789649.379
  20490684.951     5424628.17444   4230127.45042  20490686.594    20490682.901
  21298367.973     8245911.82543   6407858.42842  21298369.921    21298366.344
  24112855.783     4188935.66243   3271003.00442  24112857.590    24112856.239
  21345343.989     7680936.84543   5976181.77642  21345344.776    21345342.071
 04  5 14 16 22 30.0000000  0  9G24G21G18G17G 5G 6G30G29G10
  24639090.707     2571747.20743   1997025.35642  24639091.629    24639090.697
  22425769.298    -2083244.17343  -1612229.24842  22425770.681    22425766.712
  24664415.516    -2586301.71343  -1999374.34342  24664417.126    24664417.145
  21604235.401     7966369.39443   6202912.02242  21604236.019    21604233.599
  23810349.717     9573350.71143   7448797.85342  23810350.608    23810349.734
  20485348.074     5396582.62744   4208273.77942  20485349.686    20485346.019
  21312066.487     8317897.91243   6463951.45242  21312068.443    21312064.891
  24098700.860     4114551.55743   3213041.44042  24098702.707    24098701.390
  21355541.411     7734524.69143   6017938.52042  21355542.224    21355539.526
 04  5 14 16 23  0.0000000  0  9G24G21G18G17G 5G 6G30G29G10
  24655275.148     2656796.93043   2063297.81742  24655276.114    24655275.217
  22412630.231    -2152290.51043  -1666031.55542  22412631.540    22412627.594
  24643171.596    -2697938.35643  -2086363.75842  24643173.341    24643173.170
  21614999.612     8022935.69443   6246989.63842  21615000.260    21614997.828
  23831064.375     9682206.94343   7533620.76542  23831065.278    23831064.518
  20480074.806     5368871.40044   4186680.62242  20480076.403    20480072.747
  21325848.818     8390324.37043   6520387.62742  21325850.786    21325847.230
  24084582.224     4040357.97843   3155228.31542  24084584.059    24084582.732
  21365840.888     7788648.81543   6060113.14942  21365841.716    21365839.063
 04  5 14 16 23 30.0000000  0  9G24G21G18G17G 5G 6G30G29G10
  24671456.139     2741828.35343   2129556.00042  24671457.020    24671456.137
  22399531.367    -2221125.45443  -1719669.14242  22399532.656    22399528.716
  24621938.933    -2809515.91043  -2173307.12242  24621940.668    24621940.419
  21625800.192     8079693.01643   6291216.09642  21625800.839    21625798.417
  23851794.388     9791143.49643   7618506.26742  23851795.263    23851794.582
  20474866.575     5341502.01744   4165353.83742  20474868.183    20474864.538
  21339715.731     8463195.27343   6577170.12042  21339717.695    21339714.141
  24070501.712     3966364.58843   3097571.18942  24070503.581    24070502.156
  21376243.298     7843313.81643   6102709.23542  21376244.125    21376241.520
 04  5 14 16 24  0.0000000  0  9G24G21G18G17G 5G 6G30G29G10
  24687629.888     2826821.88443   2195784.67342  24687630.811    24687629.954
  22386469.038    -2289768.26643  -1773157.00942  22386470.313    22386466.438
  24600714.290    -2921051.41743  -2260217.74142  24600716.104    24600715.742
  21636633.265     8136620.93243   6335575.48342  21636633.866    21636631.465
  23872535.590     9900138.46443   7703437.26842  23872536.390    23872535.740
  20469720.181     5314457.53144   4144280.21642  20469721.799    20469718.173
  21353663.089     8536488.90743   6634282.01342  21353665.055    21353661.485
  24056456.209     3892555.42943   3040057.62342  24056458.219    24056456.603
  21386744.512     7898498.13943   6145709.99142  21386745.353    21386742.785
 04  5 14 16 24 30.0000000  0  9G24G21G18G17G 5G 6G30G29G10
  24703798.491     2911788.44143   2261992.32442  24703799.442    24703798.654
  22373445.630    -2358206.55343  -1826485.50242  22373446.892    22373443.027
  24579500.349    -3032530.71843  -2347084.54242  24579502.227    24579501.974
  21647500.885     8193730.46043   6380076.38942  21647501.492    21647499.071
  23893289.640    10009201.13443   7788421.04242  23893290.481    23893289.796
  20464638.042     5287750.61644   4123469.64142  20464639.652    20464636.031
  21367692.661     8610214.59843   6691730.56942  21367694.624    21367691.056
  24042448.656     3818945.34743   2982699.17342  24042450.660    24042449.060
  21397346.407     7954211.39843   6189122.90442  21397347.262    21397344.688
 04  5 14 16 25  0.0000000  0  9G24G21G18G17G 5G 6G30G29G10
  24719961.297     2996724.21043   2328175.98942  24719962.297    24719961.401
  22360460.640    -2426443.05343  -1879656.76642  22360461.893    22360458.014
  24558297.024    -3143954.57743  -2433908.15742  24558298.892    24558298.448
  21658402.242     8251017.21543   6424715.39342  21658402.816    21658400.385
  23914055.563    10118325.83043   7873453.15242  23914056.368    23914055.665
  20459619.859     5261379.71544   4102920.88042  20459621.435    20459617.806
  21381803.340     8684366.67243   6749511.37542  21381805.329    21381801.760
  24028478.982     3745534.11743   2925495.67642  24028481.022    24028479.331
  21408047.903     8010448.05343   6232943.66042  21408048.761    21408046.166
 04  5 14 16 25 30.0000000  0  9G24G21G18G17G 5G 6G30G29G10
  24736118.354     3081629.84443   2394336.16242  24736119.354    24736118.512
  22347514.260    -2494476.48943  -1932669.80042  22347515.514    22347511.612
  24537104.840    -3255319.79343  -2520686.09342  24537106.635    24537106.138
  21669337.349     8308481.37243   6469492.63742  21669337.914    21669335.457
  23934833.030    10227511.21043   7958532.55242  23934833.815    23934833.050
  20454666.207     5235348.02244   4082636.44942  20454667.784    20454664.145
  21395994.987     8758944.11343   6807623.63442  21395996.974    21395993.423
  24014547.947     3672326.27643   2868450.66042  24014550.080    24014548.273
  21418848.831     8067207.25343   6277171.59342  21418849.675    21418847.077
 04  5 14 16 26  0.0000000  0  9G24G21G18G17G 5G 6G30G29G10
  24752269.910     3166506.73943   2460473.94142  24752270.960    24752270.083
  22334606.913    -2562304.91743  -1985523.08742  22334608.163    22334604.242
  24515924.521    -3366622.51243  -2607415.32842  24515926.441    24515925.827
  21680306.339     8366123.64343   6514408.67142  21680306.902    21680304.445
  23955621.877    10336756.37443   8043658.54042  23955622.572    23955621.751
  20449777.565     5209657.92644   4062618.19142  20449779.143    20449775.469
  21410267.344     8833945.77643   6866066.45242  21410269.318    21410265.799
  24000656.489     3599326.63143   2811567.87142  24000658.588    24000656.769
  21429749.106     8124488.48643   6321806.30142  21429749.950    21429747.336
 04  5 14 16 26 30.0000000  0 10G24G21G18G17G 5G 6G30G29G26G10
  24768415.210     3251350.71843   2526586.07342  24768416.213    24768415.378
  22321738.034    -2629931.38343  -2038219.00442  22321739.261    22321735.280
  24494755.940    -3477863.44843  -2694096.41342  24494757.906    24494757.197
  21691308.369     8423939.68043   6559460.10342  21691308.943    21691306.477
  23976420.928    10446055.34543   8128826.44842  23976421.654    23976420.805
  20444953.653     5184308.04944   4042865.03542  20444955.229    20444951.545
  21424619.336     8909365.95743   6924835.38842  21424621.299    21424617.826
  23986804.663     3526534.74343   2754846.96642  23986806.713    23986804.926
  24373122.350    -2146408.38853  -1658918.78052  24373124.514    24373124.326
  21440747.632     8182285.97443   6366843.28742  21440748.462    21440745.854
 04  5 14 16 27  0.0000000  0 10G24G21G18G17G 5G 6G30G29G26G10
  24784554.762     3336164.48443   2592674.65742  24784555.806    24784555.038
  22308908.161    -2697352.60543  -2090754.98542  22308909.423    22308905.420
  24473600.338    -3589036.65443  -2780724.73042  24473602.250    24473601.464
  21702343.866     8481931.66543   6604648.64242  21702344.474    21702342.017
  23997230.373    10555409.00043   8214036.96642  23997231.134    23997230.195
  20440195.356     5159302.97744   4023380.56342  20440196.918    20440193.257
  21439051.107     8985205.37243   6983931.00242  21439053.067    21439049.639
  23972993.628     3453957.11043   2698293.02142  23972995.549    23972993.795
  24354886.402    -2242238.47043  -1733591.47442  24354888.632    24354888.376
  21451844.545     8240600.57143   6412283.21842  21451845.378    21451842.786
 04  5 14 16 27 30.0000000  0 10G24G21G18G17G 5G 6G30G29G26G10
  24800688.768     3420949.10543   2658740.53042  24800689.785    24800688.966
  22296117.734    -2764566.59443  -2143129.48542  22296118.978    22296114.977
  24452458.239    -3700138.93943  -2867297.78642  24452460.048    24452459.195
  21713412.950     8540099.96843   6649974.57342  21713413.568    21713411.092
  24018049.967    10664815.99043   8299289.03142  24018050.755    24018049.776
  20435503.192     5134645.42544   4004166.88242  20435504.749    20435501.097
  21453562.448     9061462.84043   7043352.37242  21453564.389    21453560.995
  23959224.116     3381598.23743   2641909.53542  23959226.010    23959224.364
  24336664.041    -2337997.49043  -1808208.77542  24336666.311    24336665.960
  21463039.683     8299431.32043   6458125.34442  21463040.514    21463037.943
 04  5 14 16 28  0.0000000  0 10G24G21G18G17G 5G 6G30G29G26G10
  24816816.399     3505699.96643   2724780.09942  24816817.375    24816816.534
  22283366.027    -2831577.03043  -2195345.37442  22283367.265    22283363.277
  24431329.381    -3811171.72043  -2953816.67842  24431331.039    24431330.241
  21724514.621     8598439.47943   6695433.91742  21724515.225    21724512.768
  24038878.484    10774269.90343   8384577.66242  24038879.263    24038878.368
  20430876.648     5110332.75244   3985221.94142  20430878.221    20430874.556
  21468152.050     9138131.74443   7103094.34442  21468154.011    21468150.602
  23945496.071     3309457.00443   2585695.64342  23945497.909    23945496.315
  24318455.051    -2433685.99843  -1882771.15142  24318457.358    24318456.908
  21474331.863     8358771.88143   6504364.72242  21474332.684    21474330.084
 04  5 14 16 28 30.0000000  0 10G24G21G18G17G 5G 6G30G29G26G10
  24832937.719     3590417.42443   2790793.63842  24832938.693    24832937.757
  22270653.249    -2898383.14043  -2247402.04742  22270654.467    22270650.465
  24410214.084    -3922132.67143  -3040279.60542  24410215.752    24410214.998
  21735648.878     8656950.21043   6741026.67742  21735649.471    21735647.024
  24059715.612    10883769.11443   8469901.57542  24059716.354    24059715.569
  20426316.183     5086367.52744   3966547.74042  20426317.781    20426314.135
  21482819.664     9215210.37643   7163155.58042  21482821.613    21482818.162
  23931810.213     3237537.54843   2529654.55142  23931812.044    23931810.465
  24300260.329    -2529299.49143  -1957275.07542  24300262.573    24300262.180
  21485720.799     8418620.88443   6551000.29042  21485721.613    21485719.000
 04  5 14 16 29  0.0000000  0 10G24G21G18G17G 5G 6G30G29G26G10
  24849052.763     3675102.24143   2856781.75142  24849053.807    24849052.810
  22257979.675    -2964983.03043  -2299298.02942  22257980.922    22257976.881
  24389113.178    -4033017.86143  -3126683.48542  24389114.828    24389114.161
  21746815.749     8715632.30943   6786752.96642  21746816.328    21746813.886
  24080561.066    10993312.23443   8555259.70142  24080561.798    24080561.052
  20421822.362     5062752.37044   3948146.31742  20421823.981    20421820.314
  21497565.007     9292697.47543   7223535.09942  21497566.979    21497563.477
  23918167.354     3165843.94943   2473789.45542  23918169.244    23918167.489
  24282080.698    -2624833.24443  -2031716.85442  24282082.892    24282082.719
  21497206.236     8478977.28443   6598031.23942  21497207.073    21497204.457
 04  5 14 16 29 30.0000000  0 10G24G21G18G17G 5G 6G30G29G26G10
  24865161.607     3759754.52143   2922744.49942  24865162.687    24865161.773
  22245345.477    -3031376.09343  -2351032.84942  22245346.746    22245342.702
  24368027.224    -4143824.24843  -3213025.96042  24368028.979    24368028.212
  21758015.124     8774485.39843   6832612.49742  21758015.736    21758013.288
  24101414.452    11102897.33743   8640650.54342  24101415.280    24101414.591
  20417395.588     5039489.58844   3930019.47442  20417397.233    20417393.566
  21512387.688     9370591.01843   7284231.33242  21512389.663    21512386.125
  23904568.207     3094380.20243   2418103.45842  23904570.152    23904568.317
  24263917.071    -2720283.12643  -2106093.29042  24263919.217    24263919.010
  21508787.948     8539839.50943   6645456.32842  21508788.774    21508786.155
 04  5 14 16 30  0.0000000  0 10G24G21G18G17G 5G 6G30G29G26G10
  24881263.291     3844369.68643   2988678.34542  24881264.437    24881263.537
  22232749.908    -3097566.00043  -2402609.36542  22232751.197    22232747.222
  24346956.089    -4254553.24543  -3299308.14842  24346957.896    24346956.960
  21769246.118     8833504.48343   6878601.37142  21769246.702    21769244.282
  24122274.687    11212518.10043   8726069.17742  24122275.467    24122274.770
  20413035.293     5016576.07644   3912164.78842  20413036.949    20413033.284
  21527286.497     9448884.58843   7345239.27442  21527288.463    21527284.919
  23891012.540     3023145.25543   2362595.76542  23891014.507    23891012.696
  24245769.330    -2815649.67943  -2180404.79342  24245771.559    24245771.150
  21520464.687     8601200.98143   6693270.44942  21520465.514    21520462.861
 04  5 14 16 30 30.0000000  0  9G21G18G17G 5G 6G30G29G26G10
  22220193.910    -3163547.98943  -2454023.86342  22220195.206    22220191.246
  24325901.007    -4365198.22743  -3385524.89842  24325902.808    24325901.725
  21780509.383     8892693.25743   6924722.46942  21780509.973    21780507.553
  24143141.947    11322176.20743   8811516.89542  24143142.698    24143142.161
  20408742.722     4994018.45144   3894587.41242  20408744.375    20408740.723
  21542261.760     9527579.84743   7406560.22342  21542263.713    21542260.167
  23877501.891     2952146.68843   2307272.24542  23877503.801    23877502.025
  24227639.014    -2910924.87743  -2254645.11342  24227641.312    24227640.746
  21532236.825     8663063.83743   6741475.25842  21532237.665    21532235.000
 04  5 14 16 31  0.0000000  0  9G21G18G17G 5G 6G30G29G26G10
  22207678.358    -3229317.61343  -2505272.89042  22207679.641    22207675.678
  24304863.072    -4475752.76143  -3471671.16142  24304864.802    24304863.655
  21791805.529     8952054.77643   6970978.18342  21791806.097    21791803.701
  24164016.774    11431873.52843   8896995.17942  24164017.453    24164017.005
  20404518.888     4971821.94344   3877291.43042  20404520.527    20404516.861
  21557313.772     9606678.57643   7468195.56342  21557315.734    21557312.180
  23864037.658     2881391.75943   2252138.58742  23864039.629    23864037.801
  24209527.518    -3006100.88343  -2328808.14542  24209529.913    24209529.175
  21544104.740     8725429.99543   6790072.24642  21544105.593    21544102.895
 04  5 14 16 31 30.0000000  0  9G21G18G17G 5G 6G30G29G26G10
  22195201.095    -3294886.23043  -2556365.29142  22195202.343    22195198.405
  24283840.620    -4586226.08843  -3557754.14742  24283842.302    24283841.069
  21803132.183     9011576.71743   7017358.89242  21803132.759    21803130.384
  24184896.394    11541595.99843   8982493.03842  24184897.117    24184896.669
  20400361.847     4949976.46644   3860268.97742  20400363.474    20400359.806
  21572439.868     9686166.40643   7530134.09642  21572441.824    21572438.251
  23850618.222     2810872.07243   2197188.22442  23850620.243    23850618.322
  24191433.409    -3101185.87943  -2402900.26242  24191435.753    24191435.046
  21556065.698     8788285.24743   6839050.34542  21556066.573    21556063.882
 04  5 14 16 32  0.0000000  0  9G21G18G17G 5G 6G30G29G26G10
  22182762.074    -3360253.67643  -2607300.93542  22182763.348    22182759.380
  24262833.916    -4696616.02643  -3643772.15542  24262835.587    24262834.259
  21814489.112     9071257.62643   7063863.47142  21814489.657    21814487.326
  24205780.275    11651340.66743   9068008.20442  24205781.060    24205780.507
  20396271.811     4928483.28744   3843521.04142  20396273.462    20396269.788
  21587639.487     9766040.56643   7592373.66442  21587641.453    21587637.824
  23837244.003     2740590.24343   2142423.21242  23837245.993    23837244.169
  24173357.278    -3196176.33743  -2476918.70842  24173359.545    24173358.944
  21568119.258     8851627.04443   6888407.57042  21568120.114    21568117.458
 04  5 14 16 32 30.0000000  0  9G21G18G17G 5G 6G30G29G26G10
  22170363.525    -3425408.36943  -2658070.80042  22170364.835    22170360.839
  24241845.691    -4806909.14043  -3729714.71342  24241847.415    24241846.057
  21825878.283     9131107.94943   7110500.06642  21825878.813    21825876.493
  24226670.141    11761116.57143   9153547.70742  24226670.877    24226670.328
  20392251.228     4907355.02344   3827057.45842  20392252.894    20392249.223
  21602914.317     9846309.91843   7654921.17542  21602916.271    21602912.616
  23823917.858     2670561.01843   2087855.03042  23823919.770    23823918.054
  24155302.000    -3291057.43743  -2550851.93342  24155304.231    24155303.530
  21580267.023     8915464.07843   6938150.69242  21580267.907    21580265.275
 04  5 14 16 33  0.0000000  0  9G21G18G17G 5G 6G30G29G26G10
  22158003.942    -3490358.46743  -2708681.23642  22158005.271    22158001.204
  24220874.683    -4917111.64043  -3815586.64342  24220876.454    24220875.133
  21837297.917     9191118.40343   7157261.43342  21837298.440    21837296.127
  24247563.816    11870912.70943   9239102.97242  24247564.474    24247563.921
  20388298.852     4886585.07544   3810873.08642  20388300.490    20388296.841
  21618262.198     9926963.22343   7717767.87642  21618264.152    21618260.493
  23810638.691     2600778.93743   2033479.43042  23810640.626    23810638.905
  24137266.658    -3385833.93443  -2624703.66142  24137268.827    24137268.081
  21592507.080     8979785.72443   6988271.43542  21592507.930    21592505.299
 04  5 14 16 33 30.0000000  0  9G21G18G17G 5G 6G30G29G26G10
  22145684.100    -3555099.51143  -2759128.77442  22145685.433    22145681.351
  24199922.308    -5027216.33843  -3901382.37842  24199924.156    24199922.798
  21848748.688     9251292.48243   7204150.29842  21848749.210    21848746.897
  24268461.676    11980731.08043   9324675.56042  24268462.316    24268461.735
  20384415.676     4866178.92144   3794972.18242  20384417.339    20384413.672
  21633683.432    10008002.45143   7780915.28942  21633685.430    21633681.807
  23797408.053     2531251.41243   1979302.18142  23797409.873    23797408.261
  24119252.743    -3480497.92043  -2698467.70742  24119254.855    24119254.004
  21604839.704     9044593.93843   7038771.31542  21604840.557    21604837.896
 04  5 14 16 34  0.0000000  0  9G21G18G17G 5G 6G30G29G26G10
  22133403.255    -3619635.69443  -2809416.67642  22133404.602    22133400.480
  24178988.115    -5137225.71043  -3987103.83142  24178989.935    24178988.586
  21860229.543     9311624.77743   7251162.45142  21860230.076    21860227.755
  24289362.409    12090564.44443   9410259.81442  24289363.016    24289362.513
  20380601.232     4846133.77444   3779352.59242  20380602.879    20380599.206
  21649176.709    10089420.24443   7844357.69942  21649178.718    21649175.168
  23784225.516     2461977.09643   1925322.24542  23784227.386    23784225.816
  24101259.936    -3575050.44643  -2772144.89842  24101262.083    24101261.217
  21617263.610     9109881.91943   7089645.04842  21617264.501    21617261.793
 04  5 14 16 34 30.0000000  0  9G21G18G17G 5G 6G30G29G26G10
  22121162.332    -3683962.05943  -2859541.08842  22121163.698    22121159.543
  24158073.438    -5247132.93943  -4072745.70742  24158075.218    24158073.876
  21871741.235     9372118.95843   7298300.74342  21871741.744    21871739.393
  24310266.394    12200415.12543   9495857.57042  24310267.173    24310266.554
  20376856.569     4826455.41144   3764018.80942  20376858.212    20376854.529
  21664742.439    10171218.47743   7908096.54342  21664744.427    21664740.894
  23771092.592     2392963.40343   1871545.38442  23771094.444    23771092.927
  24083289.912    -3669483.25043  -2845728.78842  24083292.098    24083291.145
  21629779.214     9175651.57943   7140894.10842  21629780.076    21629777.342
 04  5 14 16 35  0.0000000  0  9G21G18G17G 5G 6G30G29G26G10
  22108960.558    -3748082.73143  -2909505.21342  22108961.918    22108957.757
  24137177.886    -5356939.93343  -4158309.48842  24137179.603    24137178.194
  21883282.675     9432769.45043   7345560.84042  21883283.197    21883280.771
  24331172.453    12310276.55043   9581463.67642  24331173.148    24331172.746
  20373181.148     4807140.89544   3748968.53842  20373182.780    20373179.106
  21680379.273    10253390.26043   7972126.47142  21680381.230    21680377.714
  23758009.069     2324209.15643   1817970.69842  23758010.918    23758009.425
  24065342.483    -3763797.19343  -2919220.07842  24065344.671    24065343.609
  21642385.133     9241896.13143   7192513.22142  21642386.020    21642383.293
 04  5 14 16 35 30.0000000  0  9G21G18G17G 5G 6G30G29G26G10
  22096798.386    -3811995.07243  -2959306.99742  22096799.774    22096795.610
  24116302.358    -5466641.36843  -4243791.01642  24116304.095    24116302.664
  21894854.242     9493578.19343   7392944.24742  21894854.739    21894852.304
  24352080.424    12420148.11743   9667077.70042  24352081.126    24352080.784
  20369575.769     4788194.13544   3734204.82742  20369577.344    20369573.650
  21696087.076    10335935.25643   8036447.20642  21696089.044    21696085.528
  23744975.988     2255719.89343   1764602.49642  23744977.840    23744976.326
  24047418.793    -3857986.10543  -2992613.93342  24047420.977    24047419.918
  21655081.439     9308615.49243   7244502.31342  21655082.328    21655079.587
 04  5 14 16 36  0.0000000  0  9G21G18G17G 5G 6G30G29G26G10
  22084675.937    -3875698.87643  -3008946.29442  22084677.301    22084673.138
  24095447.292    -5576235.49043  -4329188.92642  24095448.981    24095447.455
  21906455.697     9554544.14443   7440450.15642  21906456.240    21906453.730
  24372990.016    12530027.83643   9752698.07642  24372990.703    24372990.323
  20366040.593     4769616.54544   3719728.79042  20366042.149    20366038.467
  21711865.385    10418850.76543   8101056.65642  21711867.358    21711863.848
  23731993.843     2187498.58843   1711443.10242  23731995.773    23731994.136
  24029519.541    -3952046.44743  -3065907.60742  24029521.822    24029520.706
  21667867.630     9375807.21243   7296859.47942  21667868.508    21667865.772
 04  5 14 16 36 30.0000000  0  9G21G18G17G 5G 6G30G29G26G10
  22072592.852    -3939195.63643  -3058424.25342  22072594.228    22072590.083
  24074612.686    -5685721.82043  -4414502.84342  24074614.340    24074612.752
  21918086.550     9615664.53843   7488076.41242  21918087.108    21918084.546
  24393900.275    12639911.05643   9838321.17842  24393901.010    24393900.409
  20362575.579     4751407.76344   3705540.12942  20362577.124    20362573.452
  21727713.379    10502132.38543   8165951.39242  21727715.350    21727711.845
  23719063.063     2119546.73143   1658493.65242  23719064.938    23719063.230
  24011645.178    -4045976.38543  -3139099.65742  24011647.440    24011646.369
  21680742.878     9443466.89043   7349581.28142  21680743.747    21680741.019
 04  5 14 16 37  0.0000000  0  9G21G18G17G 5G 6G30G29G26G10
  22060549.787    -4002482.12243  -3107738.37042  22060551.137    22060547.032
  24053799.569    -5795094.99943  -4499728.58442  24053801.123    24053799.624
  21929747.177     9676941.54343   7535824.70042  21929747.806    21929745.180
  24414811.412    12749798.84143   9923947.82642  24414812.113    24414811.618
  20359181.579     4733572.20344   3691642.28842  20359183.149    20359179.471
  21743631.116    10585780.43543   8231131.66042  21743633.069    21743629.583
  23706184.626     2051870.07743   1605758.65542  23706186.518    23706184.672
  23993796.852    -4139769.18843  -3212184.87242  23993799.086    23993798.256
  21693707.245     9511595.06343   7402668.15242  21693708.122    21693705.427
 04  5 14 16 37 30.0000000  0  9G21G18G17G 5G 6G30G29G26G10
  22048546.598    -4065559.02543  -3156889.17142  22048547.935    22048543.858
  24033008.139    -5904353.97643  -4584865.32842  24033009.713    24033008.204
  21941437.264     9738373.15943   7583693.46342  21941437.872    21941435.279
  24435722.650    12859687.20743  10009574.92542  24435723.299    24435722.855
  20355858.660     4716110.16444   3678035.50742  20355860.224    20355856.553
  21759617.788    10669790.89643   8296594.32542  21759619.756    21759616.285
  23693358.899     1984470.51643   1553239.58642  23693360.844    23693358.962
  23975975.147    -4233422.58743  -3285161.44842  23975977.340    23975976.458
  21706760.056     9580187.96743   7456117.14542  21706760.915    21706758.270
 04  5 14 16 38  0.0000000  0  9G21G18G17G 5G 6G30G29G26G10
  22036582.632    -4128429.79743  -3205879.34842  22036583.968    22036579.926
  24012238.275    -6013499.72143  -4669913.85142  24012239.881    24012238.351
  21953155.910     9799955.00943   7631679.28842  21953156.537    21953153.929
  24456632.833    12969570.25643  10095197.85442  24456633.524    24456633.071
  20352606.428     4699019.60544   3664718.19442  20352608.015    20352604.333
  21775672.330    10754157.84643   8362334.76742  21775674.262    21775670.835
  23680585.796     1917347.71243   1500936.16442  23680587.779    23680585.818
  23958179.992    -4326936.27643  -3358029.17342  23958182.169    23958181.314
  21719900.213     9649239.87243   7509923.80542  21719901.072    21719898.456
 04  5 14 16 38 30.0000000  0  9G21G18G17G 5G 6G30G29G26G10
  22024658.951    -4191089.17043  -3254704.80142  22024660.245    22024656.250
  23991491.310    -6122525.14943  -4754868.62542  23991492.874    23991491.452
  21964903.927     9861691.14343   7679785.33742  21964904.554    21964901.964
  24477542.576    13079450.67543  10180818.73942  24477543.214    24477542.817
  20349426.100     4682306.74544   3651695.18042  20349427.679    20349423.980
  21791795.052    10838883.25243   8428354.52342  21791796.980    21791793.597
  23667866.889     1850509.60643   1448854.58842  23667868.890    23667866.910
  23940413.160    -4420301.68443  -3430781.36042  23940415.250    23940414.355
  21733128.119     9718752.98743   7564089.84842  21733128.984    21733126.399
 04  5 14 16 39  0.0000000  0  9G21G18G17G 5G 6G30G29G26G10
  22012774.958    -4253539.93643  -3303367.70142  22012776.237    22012772.254
  23970767.195    -6231430.94043  -4839730.17142  23970768.707    23970767.269
  21976680.608     9923578.01143   7728008.83942  21976681.223    21976678.669
  24498450.805    13189322.99643  10266433.30542  24498451.327    24498451.073
  20346317.346     4665970.17144   3638965.38242  20346318.962    20346315.238
  21807984.965    10923961.74543   8494649.42742  21807986.910    21807983.522
  23655202.217     1783956.44143   1396995.04342  23655204.216    23655202.213
  23922674.566    -4513518.17543  -3503417.49542  23922676.686    23922675.761
  21746442.789     9788721.89443   7618611.05642  21746443.614    21746441.074
 04  5 14 16 39 30.0000000  0  9G21G18G17G 5G 6G30G29G26G10
  22000930.470    -4315783.30443  -3351869.00042  22000931.718    22000927.717
  23950066.011    -6340216.39743  -4924497.97742  23950067.503    23950066.002
  21988485.447     9985612.78643   7776347.59442  21988486.073    21988483.497
  24519356.749    13299183.13443  10352038.37742  24519357.261    24519357.076
  20343280.166     4650009.59844   3626528.56842  20343281.765    20343278.035
  21824241.201    11009388.57043   8561215.73642  21824243.138    21824239.752
  23642591.982     1717689.48643   1345358.51042  23642593.998    23642592.003
  23904964.744    -4606583.61743  -3575935.93242  23904966.811    23904965.894
  21759843.382     9859142.46543   7673484.21042  21759844.193    21759841.699
 04  5 14 16 40  0.0000000  0  9G21G18G17G 5G 6G30G29G26G10
  21989126.512    -4377813.63043  -3400204.29542  21989127.757    21989123.713
  23929389.201    -6448873.54343  -5009165.79342  23929390.702    23929389.188
  22000319.421    10047800.49143   7824805.51642  22000319.991    22000317.468
  24540260.980    13409034.37343  10437636.51442  24540261.438    24540261.273
  20340315.840     4634431.93544   3614390.12542  20340317.430    20340313.711
  21840564.297    11095167.01143   8628056.02342  21840566.234    21840562.897
  23630037.862     1651717.42443   1293951.77142  23630039.905    23630037.876
  23887285.392    -4699488.80243  -3648329.50042  23887287.494    23887286.643
  21773330.520     9930017.74243   7728711.67842  21773331.341    21773328.855
 04  5 14 16 40 30.0000000  0  9G21G18G17G 5G 6G30G29G26G10
  21977361.662    -4439638.25643  -3448379.29442  21977362.952    21977358.841
  23908735.866    -6557407.36643  -5093737.51242  23908737.341    23908735.757
  22012180.828    10110132.48643   7873375.87942  22012181.411    22012178.904
  24561161.627    13518866.78743  10523219.97542  24561162.107    24561161.956
  20337423.179     4619230.91944   3602545.17342  20337424.784    20337421.084
  21856952.276    11181286.40143   8695162.00142  21856954.233    21856950.914
  23617538.925     1586035.23643   1242770.92542  23617540.983    23617538.921
  23869635.799    -4792237.82843  -3720601.38042  23869637.914    23869637.084
  21786902.242    10001337.51143   7784285.50742  21786903.045    21786900.587
 04  5 14 16 41  0.0000000  0  9G21G18G17G 5G 6G30G29G26G10
  21965637.467    -4501249.26743  -3496387.85442  21965638.768    21965634.634
  23888107.787    -6665808.06843  -5178205.50242  23888109.345    23888107.746
  22024071.028    10172615.64543   7922064.02642  22024071.592    22024069.112
  24582059.652    13628685.57443  10608792.80642  24582060.096    24582059.966
  20334603.918     4604415.63044   3591000.78342  20334605.541    20334601.827
  21873406.091    11267751.68243   8762537.51142  21873408.059    21873404.737
  23605097.300     1520653.97643   1191824.54442  23605099.295    23605097.195
  23852018.113    -4884819.32143  -3792742.73042  23852020.177    23852019.333
  21800559.480    10073106.78543   7840209.59442  21800560.289    21800557.831
 04  5 14 16 41 30.0000000  0  9G21G18G17G 5G 6G30G29G26G10
  21953953.076    -4562650.91943  -3544233.26942  21953954.396    21953950.265
  23867504.548    -6774078.26243  -5262571.80542  23867506.174    23867504.463
  22035988.894    10235244.27943   7970865.52742  22035989.443    22035986.993
  24602953.633    13738483.47843  10694349.36442  24602954.144    24602954.062
  20331857.412     4589982.70044   3579754.33542  20331859.030    20331855.342
  21889924.365    11354555.36443   8830176.71242  21889926.286    21889922.947
  23592712.607     1455571.84443   1141111.23942  23592714.539    23592712.381
  23834432.130    -4977234.23543  -3864754.26842  23834434.248    23834433.202
  21814300.904    10145318.32943   7896478.31142  21814301.714    21814299.218
 04  5 14 16 42  0.0000000  0  9G21G18G17G 5G 6G30G29G26G10
  21942308.106    -4623845.51743  -3591917.34542  21942309.428    21942305.303
  23846926.229    -6882217.54043  -5346836.08742  23846927.870    23846926.085
  22047933.936    10298015.78143   8019778.36842  22047934.486    22047932.067
  24623842.830    13848255.89743  10779886.05142  24623843.287    24623843.303
  20329183.488     4575931.20144   3568805.11542  20329185.132    20329181.431
  21906506.081    11441692.64543   8898075.85442  21906508.025    21906504.641
  23580384.871     1390789.65543   1090631.66942  23580386.885    23580384.703
  23816878.089    -5069481.18643  -3936634.92642  23816880.230    23816879.159
  21828125.566    10217967.39643   7953087.96242  21828126.370    21828123.862
 04  5 14 16 42 30.0000000  0  9G21G18G17G 5G 6G30G29G26G10
  21930703.917    -4684826.00743  -3639434.58242  21930705.220    21930701.101
  23826374.505    -6990217.37743  -5430991.72342  23826376.195    23826374.220
  22059907.249    10360935.95143   8068807.05242  22059907.838    22059905.420
  24644727.957    13958007.04043  10865406.14642  24644728.435    24644728.509
  20326583.751     4562269.53344   3558159.65342  20326585.392    20326581.707
  21923151.981    11529167.43343   8966237.97342  21923153.935    21923150.597
  23568116.096     1326317.08943   1040393.35942  23568118.128    23568115.923
  23799357.951    -5161549.87643  -4008376.68742  23799360.065    23799358.988
  21842034.318    10291058.13743   8010041.77042  21842035.154    21842032.545
 04  5 14 16 43  0.0000000  0  9G21G18G17G 5G 6G30G29G26G10
  21919139.204    -4745598.87843  -3686790.03842  21919140.522    21919136.373
  23805848.546    -7098081.99643  -5515041.99442  23805850.209    23805848.141
  22071907.299    10423996.49143   8117945.11342  22071907.862    22071905.463
  24665607.285    14067727.66243  10950902.44542  24665607.839    24665607.820
  20324057.062     4548991.72944   3547813.31842  20324058.695    20324055.034
  21939860.235    11616969.93643   9034655.46642  21939862.206    21939858.906
  23555905.491     1262150.11743    990393.16942  23555907.519    23555905.230
  23781871.212    -5253443.34643  -4079981.91642  23781873.283    23781872.139
  21856025.217    10364580.77243   8067332.12242  21856026.091    21856023.439
 04  5 14 16 43 30.0000000  0  9G21G18G17G 5G 6G30G29G26G10
  21907614.518    -4806161.47243  -3733981.64042  21907615.840    21907611.663
  23785349.247    -7205806.21843  -5598982.85642  23785350.940    23785348.904
  22083934.566    10487200.01943   8167194.58842  22083935.111    22083932.689
  24686480.920    14177418.22343  11036375.30842  24686481.271    24686481.563
  20321604.267     4536102.16544   3537769.49842  20321605.895    20321602.230
  21956630.862    11705100.07543   9103328.25542  21956632.820    21956629.584
  23543754.120     1198294.42043    940635.52442  23543756.146    23543753.821
  23764418.955    -5345155.44043  -4151445.82042  23764421.003    23764419.804
  21870098.351    10438535.46243   8124959.13742  21870099.212    21870096.562
 04  5 14 16 44  0.0000000  0  9G21G18G17G 5G 6G30G29G26G10
  21896130.237    -4866511.60243  -3781007.69042  21896131.599    21896127.385
  23764877.463    -7313386.18543  -5682811.31642  23764879.114    23764877.111
  22095989.049    10550546.74943   8216555.65342  22095989.602    22095987.176
  24707348.724    14287078.04843  11121824.22042  24707349.155    24707349.347
  20319225.869     4523603.58244   3528030.33742  20319227.501    20319223.829
  21973463.631    11793556.70743   9172255.45142  21973465.602    21973462.382
  23531662.786     1134754.65343    891124.06642  23531664.834    23531662.572
  23747002.245    -5436680.85543  -4222764.25042  23747004.237    23747003.005
  21884253.526    10512921.41343   8182922.20242  21884254.375    21884251.745
 04  5 14 16 44 30.0000000  0  9G21G18G17G 5G 6G30G29G26G10
  21884686.246    -4926649.97443  -3827868.73442  21884687.604    21884683.415
  23744433.286    -7420820.70243  -5766526.41842  23744434.923    23744432.986
  22108070.622    10614035.71043   8266027.55042  22108071.196    22108068.737
  24728209.971    14396703.83043  11207246.60342  24728210.406    24728210.781
  20316922.006     4511496.56444   3518596.29042  20316923.609    20316919.943
  21990357.844    11882336.12243   9241434.17342  21990359.804    21990356.604
  23519632.036     1071532.89443    841860.39642  23519634.058    23519631.830
  23729621.511    -5528016.56543  -4293934.85542  23729623.518    23729622.319
  21898490.078    10587735.03443   8241218.51242  21898490.933    21898488.321
 04  5 14 16 45  0.0000000  0  9G21G18G17G 5G 6G30G29G26G10
  21873282.311    -4986578.10243  -3874565.94942  21873283.631    21873279.458
  23724016.932    -7528108.91343  -5850127.50742  23724018.547    23724016.658
  22120178.730    10677664.04143   8315608.04242  22120179.299    22120176.853
  24749064.035    14506291.78043  11292639.49142  24749064.406    24749064.978
  20314692.603     4499780.86444   3509467.16642  20314694.190    20314690.535
  22007312.683    11971434.12243   9310861.14142  22007314.654    22007311.418
  23507662.122     1008630.59243    792845.67042  23507664.047    23507661.872
  23712277.319    -5619160.49043  -4364956.02142  23712279.333    23712278.102
  21912807.276    10662972.22243   8299844.87242  21912808.098    21912805.508
 04  5 14 16 45 30.0000000  0  9G21G18G17G 5G 6G30G29G26G10
  21861918.636    -5046294.58143  -3921098.24542  21861919.973    21861915.744
  23703629.110    -7635247.09943  -5933611.69542  23703630.790    23703628.901
  22132313.445    10741432.28643   8365297.56342  22132314.006    22132311.559
  24769910.631    14615840.15943  11378001.56842  24769911.077    24769911.510
  20312538.134     4488458.94544   3500644.89042  20312539.717    20312536.048
  22024327.822    12060849.09943   9380535.10842  22024329.786    22024326.558
  23495753.666      946051.56143    744082.83842  23495755.577    23495753.430
  23694970.511    -5710107.82843  -4435823.99742  23694972.631    23694971.351
  21927204.738    10738631.42043   8358800.06642  21927205.593    21927203.023
 04  5 14 16 46  0.0000000  0  9G21G18G17G 5G 6G30G29G26G10
  21850595.236    -5105799.38643  -3967465.60242  21850596.566    21850592.326
  23683270.256    -7742233.34343  -6016977.49542  23683271.930    23683269.974
  22144474.620    10805339.56743   8415095.41742  22144475.184    22144472.762
  24790749.309    14725346.85343  11463331.15242  24790749.868    24790750.119
  20310458.809     4477531.95644   3492130.35042  20310460.402    20310456.710
  22041402.689    12150577.87943   9450453.59342  22041404.641    22041401.410
  23483907.332      883798.90143    695574.31242  23483909.263    23483907.027
  23677701.814    -5800855.13243  -4506536.11242  23677703.947    23677702.558
  21941681.996    10814709.78943   8418081.89142  21941682.806    21941680.311
 04  5 14 16 46 30.0000000  0  9G21G18G17G 5G 6G30G29G26G10
  21839311.976    -5165093.11043  -4013668.48042  21839313.316    21839309.092
  23662940.607    -7849066.27843  -6100223.82742  23662942.241    23662940.187
  22156661.911    10869384.05743   8465000.18842  22156662.479    22156660.055
  24811579.403    14834808.60143  11548625.71442  24811579.853    24811580.247
  20308454.686     4467000.22644   3483923.80342  20308456.297    20308452.585
  22058536.551    12240616.72943   9520613.69842  22058538.512    22058535.252
  23472123.455      821874.30843    647321.42242  23472125.401    23472123.195
  23660471.707    -5891399.58043  -4577090.15842  23660473.861    23660472.421
  21956238.286    10891203.61243   8477687.44042  21956239.113    21956236.621
 04  5 14 16 47  0.0000000  0  9G21G18G17G 5G 6G30G29G26G10
  21828068.875    -5224175.98843  -4059707.06442  21828070.179    21828065.942
  23642640.439    -7955744.17343  -6183349.35142  23642642.066    23642639.910
  22168875.081    10933564.61943   8515010.99342  22168875.631    22168873.248
  24832400.525    14944222.94043  11633883.31642  24832400.836    24832401.348
  20306525.953     4456864.50444   3476025.83542  20306527.549    20306523.825
  22075728.796    12330962.52743   9591012.97342  22075730.770    22075727.536
  23460402.502      760280.56243    599326.33442  23460404.508    23460402.258
  23643280.843    -5981737.85943  -4647483.55942  23643282.967    23643281.545
  21970873.040    10968109.65643   8537614.20342  21970873.878    21970871.386
 04  5 14 16 47 30.0000000  0  8G21G18G17G 6G30G29G26G10
  21816868.563    -5283033.97343  -4105570.40442  21816869.860    21816865.631
  23622372.822    -8062251.04143  -6266341.61242  23622374.395    23622372.225
  22181116.628    10997894.21243   8565137.92142  22181117.174    22181114.774
  20304675.428     4447139.81444   3468448.14542  20304677.028    20304673.307
  22092981.524    12421626.03243   9661659.81842  22092983.493    22092980.293
  23448747.703      699033.93643    551601.72042  23448749.650    23448747.305
  23626132.433    -6071852.88343  -4717702.99842  23626134.552    23626133.148
  21985588.473    11045439.50743   8597871.19642  21985589.311    21985586.796
 04  5 14 16 48  0.0000000  0  8G21G18G17G 6G30G29G26G10
  21805706.038    -5341693.47143  -4151279.08042  21805707.308    21805703.056
  23602133.056    -8168611.36043  -6349219.67042  23602134.661    23602132.449
  22193381.260    11062345.16443   8615359.42442  22193381.805    22193379.402
  20302898.266     4437800.74844   3461170.94642  20302899.863    20302896.149
  22110289.098    12512577.70543   9732531.21042  22110291.060    22110287.893
  23437154.337      638110.64043    504129.07842  23437156.253    23437153.956
  23609022.155    -6161767.41343  -4787766.19542  23609024.318    23609022.968
  22000378.919    11123163.65443   8658435.44842  22000379.775    22000377.250
 04  5 14 16 48 30.0000000  0  8G21G18G17G 6G30G29G26G10
  21794584.108    -5400139.52043  -4196821.43142  21794585.361    21794581.112
  23581924.462    -8274807.65243  -6431969.91542  23581926.118    23581923.794
  22205671.769    11126932.14543   8665686.91642  22205672.303    22205669.913
  20301197.598     4428863.73444   3454207.04042  20301199.228    20301195.494
  22127653.854    12603829.81143   9803636.71142  22127655.800    22127652.651
  23425626.029      577528.86443    456922.53242  23425627.945    23425625.601
  23591953.635    -6251462.76643  -4857658.61542  23591955.814    23591954.458
  22015246.724    11201294.34543   8719316.48042  22015247.568    22015245.057
 04  5 14 16 49  0.0000000  0  8G21G18G17G 6G30G29G26G10
  21783502.726    -5458372.39543  -4242197.67142  21783503.970    21783499.732
  23561747.517    -8380837.91043  -6514590.79042  23561749.158    23561746.814
  22217987.881    11191653.75343   8716119.31742  22217988.422    22217986.037
  20299573.616     4420329.58744   3447557.05842  20299575.260    20299571.517
  22145075.171    12695379.12743   9874973.79142  22145077.136    22145073.933
  23414163.146      517290.87843    409983.89542  23414165.052    23414162.713
  23574927.463    -6340935.71843  -4927377.74642  23574929.620    23574928.256
  22030191.336    11279828.70443   8780512.05842  22030192.182    22030189.672
 04  5 14 16 49 30.0000000  0  8G21G18G17G 6G30G29G26G10
  21772460.989    -5516396.99243  -4287411.61842  21772462.256    21772457.979
  23541601.548    -8486705.38743  -6597084.82442  23541603.213    23541600.802
  22230328.527    11256504.07743   8766652.00942  22230329.013    22230326.699
  20298025.494     4412194.06544   3441217.69242  20298027.131    20298023.384
  22162551.457    12787217.31043   9946535.97342  22162553.418    22162550.227
  23402765.168      457394.25543    363311.23842  23402767.028    23402764.776
  23557943.315    -6430187.84643  -4996924.78942  23557945.478    23557944.138
  22045211.137    11358758.25143   8842015.57542  22045211.998    22045209.486
 04  5 14 16 50  0.0000000  0  8G21G18G17G 6G30G29G26G10
  21761460.660    -5574203.84843  -4332455.89942  21761461.946    21761457.664
  23521488.783    -8592398.37543  -6679442.90042  23521490.423    23521487.999
  22242695.217    11321491.49343   8817291.52342  22242695.720    22242693.429
  20296555.244     4404467.86144   3435197.27142  20296556.885    20296553.155
  22180083.966    12879350.85143  10018328.30442  22180085.902    22180082.705
  23391434.403      397850.98943    316913.92642  23391436.290    23391434.060
  23541003.770    -6519206.03043  -5066289.55142  23541005.860    23541004.487
  22060307.448    11438089.77643   8903832.31242  22060308.327    22060305.783
 04  5 14 16 50 30.0000000  0  8G21G18G17G 6G30G29G26G10
  21750500.584    -5631799.27743  -4377335.43242  21750501.892    21750497.614
  23501408.324    -8697921.55043  -6761668.64942  23501409.873    23501407.538
  22255086.661    11386608.81343   8868032.27042  22255087.128    22255084.855
  20295161.838     4397145.48444   3429491.52542  20295163.497    20295159.752
  22197670.844    12971770.35943  10090343.46042  22197672.779    22197669.605
  23380170.209      338657.59843    270789.25242  23380172.091    23380169.958
  23524108.021    -6607993.43043  -5135474.47442  23524110.153    23524108.745
  22075478.511    11517814.13543   8965955.16442  22075479.388    22075476.854
 04  5 14 16 51  0.0000000  0  8G21G18G17G 6G30G29G26G10
  21739581.082    -5689181.67843  -4422048.96842  21739582.360    21739578.087
  23481360.873    -8803271.04143  -6843759.06142  23481362.461    23481360.075
  22267502.951    11451856.81243   8918874.83842  22267503.431    22267501.157
  20293845.825     4390229.78144   3424102.66842  20293847.484    20293843.733
  22215311.844    13064474.45143  10162580.36442  22215313.789    22215310.668
  23368973.409      279818.19043    224940.41042  23368975.299    23368973.130
  23507257.218    -6696544.78443  -5204475.46242  23507259.311    23507257.849
  22090724.105    11597930.23443   9028383.26742  22090724.981    22090722.465
 04  5 14 16 51 30.0000000  0  8G21G18G17G 6G30G29G26G10
  21728701.521    -5746354.03843  -4466598.83242  21728702.774    21728698.530
  23461346.342    -8908447.50943  -6925714.64742  23461347.956    23461345.587
  22279943.394    11517231.55143   8969816.16342  22279943.868    22279941.584
  20292606.787     4383718.66044   3419029.06742  20292608.464    20292604.722
  22233005.880    13157457.19143  10235034.39342  22233007.801    22233004.744
  23357843.902      221332.49143    179367.18942  23357845.797    23357843.629
  23490451.437    -6784859.36343  -5273291.94642  23490453.532    23490452.062
  22106043.100    11678432.09743   9091111.96142  22106043.956    22106041.456
 04  5 14 16 52  0.0000000  0  8G21G18G17G 6G30G29G26G10
  21717863.385    -5803308.83743  -4510979.17742  21717864.602    21717860.377
  23441366.626    -9013441.27043  -7007527.87042  23441368.292    23441365.867
  22292409.300    11582740.04843   9020861.71942  22292409.779    22292407.453
  20291446.462     4377621.13344   3414277.74642  20291448.129    20291444.421
  22250753.868    13250723.17443  10307709.13642  22250755.776    22250752.693
  23346783.632      163210.77843    134077.59142  23346785.479    23346783.376
  23473692.880    -6872925.99943  -5341915.22442  23473694.970    23473693.468
  22121436.340    11759324.33743   9154144.84642  22121437.226    22121434.753
 04  5 14 16 52 30.0000000  0  8G21G18G17G 6G30G29G26G10
  21707064.893    -5860055.11443  -4555197.03742  21707066.134    21707061.908
  23421420.311    -9118259.69543  -7089204.47442  23421421.986    23421419.479
  22304898.611    11648371.68043   9072003.22442  22304899.115    22304896.760
  20290363.203     4371928.55344   3409841.97242  20290364.859    20290361.182
  22268553.337    13344259.86743  10380594.82042  22268555.303    22268552.161
  23335791.347      105446.24143     89066.32042  23335793.173    23335791.117
  23456980.293    -6960750.72443  -5410349.99042  23456982.473    23456980.972
  22136901.632    11840594.85943   9217472.49342  22136902.471    22136900.040
 04  5 14 16 53  0.0000000  0  9G21G18G17G 6G30G29G26G10G16
  21696306.204    -5916592.55343  -4599252.16742  21696307.415    21696303.157
  23401507.735    -9222900.82743  -7170742.92442  23401509.355    23401506.871
  22317411.245    11714125.91743   9123240.26542  22317411.791    22317409.368
  20289357.209     4366642.07044   3405722.64342  20289358.877    20289355.199
  22286403.800    13438064.51543  10453689.31342  22286405.759    22286402.576
  23324867.631       48041.88143     44335.69242  23324869.440    23324867.377
  23440314.482    -7048330.00343  -5478593.49742  23440316.601    23440315.148
  22152438.351    11922240.81543   9281092.68942  22152439.181    22152436.786
  24765813.619    -5108561.71853  -3939824.82552  24765815.256    24765812.983
 04  5 14 16 53 30.0000000  0  9G21G18G17G 6G30G29G26G10G16
  21685587.952    -5972917.30243  -4643141.56042  21685589.181    21685584.900
  23381630.031    -9327358.50643  -7252138.43542  23381631.637    23381629.119
  22329947.800    11780006.06343   9174575.42042  22329948.398    22329946.000
  20288429.457     4361766.78844   3401923.71742  20288431.129    20288427.466
  22304305.428    13532137.94443  10526993.24142  22304307.388    22304304.175
  23314013.664       -8995.86343      -109.25642  23314015.465    23314013.411
  23423696.876    -7135655.95343  -5546639.60142  23423698.984    23423697.507
  22168046.813    12004263.56443   9345006.48842  22168047.638    22168045.217
  24749755.235    -5192948.82443  -4005580.97842  24749756.871    24749754.543
 04  5 14 16 54  0.0000000  0  9G21G18G17G 6G30G29G26G10G16
  21674911.827    -6029020.86343  -4686858.59642  21674913.050    21674908.743
  23361789.188    -9431622.37143  -7333382.93042  23361790.830    23361788.254
  22342509.672    11846019.16343   9226014.16142  22342510.282    22342507.940
  20287581.780     4357312.07144   3398452.50442  20287583.417    20287579.758
  22322259.233    13626485.59343  10600510.84442  22322261.183    22322257.971
  23303231.554      -65656.08943    -44260.02642  23303233.359    23303231.294
  23407129.663    -7222717.02843  -5614479.32342  23407131.844    23407130.246
  22183728.021    12086668.51843   9409218.10942  22183728.842    22183726.398
  24733760.835    -5276999.87743  -4071075.24842  24733762.427    24733760.026
 04  5 14 16 54 30.0000000  0  9G21G18G17G 6G30G29G26G10G16
  21664275.925    -6084912.90243  -4730410.81542  21664277.174    21664272.834
  23341983.888    -9535699.53643  -7414481.95142  23341985.577    23341982.836
  22355094.978    11912155.27843   9277548.77142  22355095.582    22355093.296
  20286812.481     4353269.45244   3395302.40642  20286814.133    20286810.458
  22340262.775    13721094.79243  10674232.24842  22340264.698    22340261.545
  23292520.006     -121945.70243    -88122.01642  23292521.806    23292519.676
  23390611.766    -7309518.97043  -5682117.09542  23390613.924    23390612.300
  22199479.619    12169443.33043   9473717.93342  22199480.425    22199477.953
  24717829.035    -5360722.30643  -4136313.46842  24717830.471    24717828.183
 04  5 14 16 55  0.0000000  0  9G21G18G17G 6G30G29G26G10G16
  21653681.487    -6140587.00743  -4773793.21142  21653682.762    21653678.418
  23322215.785    -9639581.27243  -7495428.68142  23322217.488    23322214.674
  22367704.716    11978419.76743   9329183.40642  22367705.326    22367703.039
  20286122.999     4349646.17744   3392479.06942  20286124.617    20286120.975
  22358316.703    13815968.80743  10748160.00542  22358318.622    22358315.482
  23281880.595     -177855.88443   -131688.33642  23281882.442    23281880.285
  23374144.998    -7396052.00843  -5749545.33742  23374147.176    23374145.510
  22215302.212    12252591.36243   9538508.57742  22215303.041    22215300.530
  24701961.436    -5444107.22643  -4201288.69342  24701962.868    24701960.515
 04  5 14 16 55 30.0000000  0  9G21G18G17G 6G30G29G26G10G16
  21643127.323    -6196049.50343  -4817010.71842  21643128.605    21643124.255
  23302484.063    -9743271.87243  -7576226.48442  23302485.676    23302482.941
  22380337.549    12044805.55443   9380912.56142  22380338.122    22380335.857
  20285512.314     4346437.01344   3389978.42242  20285513.937    20285510.288
  22376419.297    13911098.41643  10822286.92842  22376421.208    22376418.130
  23271312.743     -233390.02243   -174961.63942  23271314.617    23271312.397
  23357728.820    -7482318.93743  -5816766.23142  23357731.020    23357729.383
  22231194.054    12336103.50643   9603582.94242  22231194.924    22231192.389
  24686157.327    -5527158.37443  -4266003.82942  24686158.745    24686156.444
 04  5 14 16 56  0.0000000  0  9G21G18G17G 6G30G29G26G10G16
  21632613.943    -6251297.70243  -4860061.24242  21632615.239    21632610.850
  23282789.553    -9846766.91043  -7656871.89042  23282791.142    23282788.382
  22392993.804    12111314.39843   9432737.59842  22392994.365    22392992.072
  20284981.151     4343645.61644   3387803.30542  20284982.772    20284979.109
  22394570.447    14006483.30743  10896612.78042  22394572.385    22394569.351
  23260817.436     -288543.23043   -217938.11442  23260819.310    23260817.050
  23341364.458    -7568313.58843  -5883774.96042  23341366.641    23341365.046
  22247155.125    12419979.25143   9668940.63642  22247155.991    22247153.431
  24670417.660    -5609870.71643  -4330454.95742  24670419.066    24670416.615
 04  5 14 16 56 30.0000000  0  9G21G18G17G 6G30G29G26G10G16
  21622141.381    -6306331.38043  -4902944.60942  21622142.665    21622138.271
  23263132.593    -9950064.34643  -7737363.31342  23263134.208    23263131.479
  22405673.339    12177945.58743   9484657.97442  22405673.862    22405671.584
  20284529.588     4341272.67044   3385954.25142  20284531.217    20284527.550
  22412769.554    14102120.07443  10971134.88742  22412771.495    22412768.503
  23250395.118     -343312.85043   -260615.69442  23250396.982    23250394.663
  23325052.617    -7654032.55143  -5950568.87442  23325054.870    23325053.233
  22263184.853    12504215.78743   9734579.46342  22263185.693    22263183.115
  24654742.848    -5692242.06943  -4394640.40442  24654744.306    24654741.694
 04  5 14 16 57  0.0000000  0  9G21G18G17G 6G30G29G26G10G16
  21611709.679    -6361150.08243  -4945660.45542  21611710.974    21611706.596
  23243513.746   -10053161.97743  -7817699.06242  23243515.370    23243512.587
  22418375.983    12244698.38143   9536673.10542  22418376.499    22418374.232
  20284157.966     4339319.68944   3384432.44242  20284159.606    20284155.919
  22431016.124    14198006.17843  11045851.28642  22431018.033    22431015.102
  23240046.311     -397695.97743   -302992.10342  23240048.214    23240045.809
  23308794.045    -7739471.77543  -6017144.80742  23308796.278    23308794.629
  22279282.791    12588810.85643   9800497.66542  22279283.630    22279281.046
  24639133.482    -5774269.68243  -4458557.98742  24639134.957    24639132.488
 04  5 14 16 57 30.0000000  0  9G21G18G17G 6G30G29G26G10G16
  21601318.395    -6415756.58143  -4988210.95142  21601319.681    21601315.303
  23223932.878   -10156060.06043  -7897879.31642  23223934.514    23223931.655
  22431101.205    12311569.77343   9588780.65842  22431101.722    22431099.453
  20283865.979     4337785.22244   3383236.74242  20283867.613    20283863.901
  22449309.100    14294136.21743  11120757.75942  22449311.051    22449308.084
  23229771.095     -451692.59843   -345067.34942  23229772.990    23229770.507
  23292588.869    -7824630.21943  -6083501.95042  23292591.156    23292589.393
  22295447.893    12673758.83143   9866690.86642  22295448.733    22295446.129
  24623589.472    -5855953.52343  -4522207.67642  24623591.073    24623588.533
 04  5 14 16 58  0.0000000  0  9G21G18G17G 6G30G29G26G10G16
  21590968.421    -6470145.94443  -5030592.25642  21590969.715    21590965.287
  23204391.135   -10258752.28543  -7977899.15442  23204392.775    23204389.897
  22443849.692    12378563.29643   9640983.36942  22443850.190    22443847.920
  20283654.617     4336674.38244   3382371.14642  20283656.272    20283652.497
  22467648.729    14390511.35643  11195855.22442  22467650.695    22467647.725
  23219570.679     -505295.92543   -386836.13342  23219572.585    23219570.082
  23276438.629    -7909500.22143  -6149634.34642  23276440.833    23276439.062
  22311680.374    12759061.01243   9933160.06142  22311681.224    22311678.632
  24608112.185    -5937287.25743  -4585584.57342  24608113.698    24608111.155
 04  5 14 16 58 30.0000000  0  9G21G18G17G 6G30G29G26G10G16
  21580659.350    -6524320.46343  -5072806.14942  21580660.621    21580656.190
  23184888.603   -10361238.30443  -8057758.31842  23184890.248    23184887.395
  22456620.849    12445676.18443   9693279.09142  22456621.390    22456619.123
  20283523.668     4335986.20944   3381834.90042  20283525.322    20283521.543
  22486034.025    14487126.55743  11271139.74042  22486036.032    22486033.031
  23209445.269     -558505.36943   -428298.00442  23209447.188    23209444.613
  23260343.576    -7994080.10443  -6215540.66642  23260345.751    23260343.985
  22327979.388    12844712.66643   9999901.57842  22327980.241    22327977.658
  24592701.609    -6018270.28743  -4648688.18242  24592703.127    24592700.650
 04  5 14 16 59  0.0000000  0  9G21G18G17G 6G30G29G26G10G16
  21570391.135    -6578280.14343  -5114852.63342  21570392.419    21570387.972
  23165425.635   -10463516.46643  -8137455.50942  23165427.266    23165424.389
  22469414.559    12512907.44443   9745667.05442  22469415.069    22469412.840
  20283473.284     4335721.43844   3381628.58342  20283474.954    20283471.179
  22504464.435    14583978.64543  11346608.84242  22504466.450    22504463.393
  23199395.174     -611318.55843   -469451.08442  23199397.109    23199394.573
  23244304.381    -8078366.40243  -6281218.22142  23244306.489    23244304.715
  22344344.354    12930710.93643  10066913.18842  22344345.205    22344342.645
  24577358.203    -6098900.25743  -4711516.68742  24577359.691    24577357.258
 04  5 14 16 59 30.0000000  0  9G21G18G17G 6G30G29G26G10G16
  21560163.712    -6632025.44243  -5156732.06742  21560165.013    21560160.545
  23146002.612   -10565584.97843  -8216989.34842  23146004.235    23146001.322
  22482230.550    12580255.96543   9798146.38842  22482231.098    22482228.886
  20283503.603     4335880.77144   3381752.73342  20283505.275    20283501.513
  22522939.253    14681064.19843  11422259.87742  22522941.276    22522938.220
  23189420.874     -663733.48643   -510293.82942  23189422.803    23189420.315
  23228321.586    -8162356.10043  -6346664.66142  23228323.717    23228321.921
  22360774.631    13017052.44343  10134192.25342  22360775.469    22360772.927
  24562082.283    -6179175.33043  -4774068.62242  24562083.753    24562081.382
 04  5 14 17  0  0.0000000  0  9G21G18G17G 6G30G29G26G10G16
  21549977.117    -6685556.21643  -5198444.33942  21549978.405    21549973.945
  23126619.947   -10667441.43443  -8296357.94442  23126621.573    23126618.569
  22495068.750    12647720.96543   9850716.49142  22495069.265    22495067.089
  20283614.784     4336464.95344   3382207.93042  20283616.450    20283612.692
  22541457.921    14778380.14643  11498090.43742  22541459.934    22541456.876
  23179522.817     -715747.57843   -550824.24642  23179524.767    23179522.355
  23212395.916    -8246045.61943  -6411877.20342  23212398.042    23212396.238
  22377269.689    13103734.46143  10201736.64342  22377270.538    22377268.009
  24546874.369    -6259093.19243  -4836342.23542  24546875.883    24546873.368
 04  5 14 17  0 30.0000000  0  9G21G18G17G 6G30G29G26G10G16
  21539831.103    -6738873.76343  -5239990.46142  21539832.390    21539827.935
  23107277.689   -10769085.14843  -8375560.76742  23107279.367    23107276.329
  22507928.862    12715300.94043   9903376.17542  22507929.321    22507927.186
  20283806.795     4337473.96644   3382994.16942  20283808.444    20283804.721
  22560019.648    14875922.49843  11574097.40542  22560021.688    22560018.639
  23169701.409     -767359.21143   -591041.05742  23169703.327    23169700.951
  23196527.890    -8329432.29443  -6476853.75442  23196530.039    23196528.168
  22393828.747    13190752.93443  10269543.21242  22393829.598    22393827.121
  24531734.733    -6338652.31343  -4898336.30342  24531736.221    24531733.754
 04  5 14 17  1  0.0000000  0  9G21G18G17G 6G30G29G26G10G16
  21529727.189    -6791970.03343  -5281364.15242  21529728.474    21529724.037
  23087977.765   -10870506.68643  -8454590.46542  23087979.373    23087976.385
  22520812.028    12783002.29243   9956130.43842  22520812.525    22520810.350
  20284081.236     4338916.13144   3384117.92942  20284082.903    20284079.155
  22578625.344    14973695.75443  11650284.30242  22578627.376    22578624.370
  23159958.425     -818558.86343   -630936.84642  23159960.323    23159957.974
  23180719.511    -8412505.48243  -6541586.04042  23180721.694    23180719.795
  22410452.704    13278112.47643  10337615.55042  22410453.574    22410451.115
  24516665.129    -6417843.01543  -4960043.28142  24516666.621    24516664.313
 04  5 14 17  1 30.0000000  0  9G21G18G17G 6G30G29G26G10G16
  21519663.087    -6844857.31843  -5322575.00342  21519664.323    21519659.911
  23068718.062   -10971716.63543  -8533455.29842  23068719.678    23068716.729
  22533715.792    12850811.93443  10008969.09542  22533716.306    22533714.102
  20284435.900     4340779.85344   3385570.17742  20284437.559    20284433.810
  22597272.026    15071684.30843  11726638.96042  22597274.014    22597271.023
  23150291.984     -869356.23643   -670519.17242  23150293.905    23150291.448
  23164969.184    -8495273.80443  -6606080.76542  23164971.354    23164969.360
  22427138.710    13365797.98443  10405941.88242  22427139.562    22427137.176
  24501663.805    -6496675.40243  -5021471.06542  24501665.401    24501662.988
 04  5 14 17  2  0.0000000  0  9G21G18G17G 6G30G29G26G10G16
  21509640.637    -6897525.50343  -5363615.12642  21509641.902    21509637.460
  23049501.149   -11072702.10043  -8612145.20442  23049502.761    23049499.834
  22546642.053    12918739.74943  10061899.83942  22546642.524    22546640.361
  20284872.979     4343076.67144   3387359.90442  20284874.627    20284870.877
  22615961.073    15169895.76743  11803167.31342  22615963.072    22615960.095
  23140704.551     -919738.52743   -709778.05142  23140706.482    23140703.937
  23149279.564    -8577723.40043  -6670327.13742  23149281.737    23149279.646
  22443888.164    13453817.04043  10474528.12542  22443889.030    22443886.694
  24486732.991    -6575136.72943  -5082609.68342  24486734.581    24486732.302
 04  5 14 17  2 30.0000000  0  9G21G18G17G 6G30G29G26G10G16
  21499659.289    -6949977.80043  -5404487.02942  21499660.547    21499656.103
  23030326.644   -11173464.57543  -8690661.35942  23030328.265    23030325.321
  22559589.958    12986781.48243  10114919.34742  22559590.435    22559588.299
  20285391.961     4345803.83444   3389484.96242  20285393.600    20285389.836
  22634691.275    15268323.40243  11879864.10742  22634693.240    22634690.298
  23131195.933     -969706.63443   -748714.19342  23131197.832    23131195.256
  23133650.556    -8659854.20643  -6734325.09642  23133652.749    23133650.638
  22460699.920    13542163.22443  10543369.27642  22460700.787    22460698.463
  24471872.687    -6653228.12043  -5143460.05942  24471874.299    24471871.900
 04  5 14 17  3  0.0000000  0  9G21G18G17G 6G30G29G26G10G16
  21489718.822    -7002215.15843  -5445191.44242  21489720.091    21489715.683
  23011194.787   -11274002.84743  -8769002.80242  23011196.446    23011193.501
  22572559.226    13054935.38943  10168026.26142  22572559.707    22572557.580
  20285992.852     4348961.48344   3391945.45742  20285994.514    20285990.713
  22653461.896    15366963.43143  11956726.40942  22653463.870    22653460.910
  23121766.321    -1019259.09643   -787326.44642  23121768.273    23121765.743
  23118082.721    -8741663.50843  -6798072.54042  23118084.870    23118082.840
  22477573.235    13630832.91843  10612462.50742  22477574.120    22477571.777
  24457083.085    -6730947.90043  -5204020.87242  24457084.656    24457082.278
 04  5 14 17  3 30.0000000  0  9G21G18G17G 6G30G29G26G10G16
  21479819.038    -7054238.87143  -5485729.38442  21479820.286    21479815.921
  22992105.735   -11374316.29443  -8847169.06742  22992107.402    22992104.440
  22585549.457    13123199.46243  10221219.01342  22585549.912    22585547.814
  20286675.507     4352548.71844   3394740.69442  20286677.147    20286673.367
  22672272.027    15465811.00843  12033750.44542  22672273.964    22672271.002
  23112415.955    -1068395.33143   -825614.37842  23112417.929    23112415.455
  23102576.391    -8823149.54343  -6861568.08942  23102578.564    23102576.483
  22494507.234    13719821.36043  10681804.12242  22494508.112    22494505.744
  24442364.277    -6808295.66643  -5264291.81542  24442365.802    24442363.423
 04  5 14 17  4  0.0000000  0  9G21G18G17G 6G30G29G26G10G16
  21469961.335    -7106041.31243  -5526094.90542  21469962.586    21469958.232
  22973061.243   -11474395.56143  -8925152.85742  22973062.845    22973059.906
  22598561.904    13191580.37943  10274502.82242  22598562.370    22598560.292
  20287441.477     4356573.91944   3397877.20842  20287443.116    20287439.338
  22691122.584    15564870.99843  12110939.97842  22691124.498    22691121.545
  23103146.714    -1117105.25443   -863570.11242  23103148.712    23103146.176
  23087133.787    -8904301.09543  -6924803.00142  23087135.858    23087133.735
  22511502.774    13809133.39243  10751397.89142  22511503.649    22511501.290
  24427718.107    -6885261.57343  -5324265.19242  24427719.611    24427717.265
 04  5 14 17  4 30.0000000  0  9G21G18G17G 6G30G29G26G10G16
  21460143.738    -7157633.11043  -5566296.28842  21460144.969    21460140.605
  22954059.699   -11574249.13243  -9002960.78942  22954061.290    22954058.259
  22611594.437    13260066.80343  10327868.84142  22611594.957    22611592.891
  20288288.967     4361027.44944   3401347.48742  20288290.584    20288286.814
  22710010.876    15664129.38443  12188284.10842  22710012.769    22710009.842
  23093957.098    -1165397.04243   -901200.02242  23093959.058    23093956.477
  23071753.335    -8985125.42043  -6987782.93142  23071755.427    23071753.326
  22528557.321    13898755.66343  10821233.39242  22528558.210    22528555.864
  24413143.049    -6961853.63743  -5383947.27042  24413144.529    24413142.297
 04  5 14 17  5  0.0000000  0  9G21G18G17G 6G30G29G26G10G16
  21450367.992    -7209004.85343  -5606326.20542  21450369.242    21450364.861
  22935103.343   -11673865.38643  -9080583.79742  22935104.909    22935101.873
  22624648.773    13328667.79243  10381324.12342  22624649.336    22624647.237
  20289219.872     4365919.45244   3405159.42942  20289221.496    20289217.750
  22728938.166    15763592.86943  12265788.05642  22728940.074    22728937.144
  23084849.280    -1213258.87243   -938494.91842  23084851.245    23084848.594
  23056437.662    -9065609.35243  -7050497.62642  23056439.726    23056437.642
  22545672.132    13988694.66243  10891315.69342  22545673.064    22545670.701
  24398641.323    -7038060.19943  -5443328.94642  24398642.969    24398640.614
 04  5 14 17  5 30.0000000  0  9G21G18G17G 6G30G29G26G10G16
  21440633.317    -7260160.84643  -5646187.99642  21440634.551    21440630.175
  22916191.600   -11773247.22743  -9158024.14142  22916193.158    22916190.126
  22637723.915    13397378.05843  10434864.56742  22637724.512    22637722.413
  20290233.589     4371246.54244   3409310.40442  20290235.209    20290231.480
  22747903.121    15863253.97743  12343445.99642  22747905.018    22747902.069
  23075822.878    -1260692.71743   -975456.31342  23075824.841    23075822.123
  23041186.591    -9145753.78743  -7112947.77142  23041188.670    23041186.619
  22562845.857    14078943.13443  10961639.15242  22562846.786    22562844.446
  24384212.588    -7113883.51043  -5502412.00342  24384214.273    24384211.795
 04  5 14 17  6  0.0000000  0  9G21G18G17G 6G30G29G26G10G16
  21430938.881    -7311105.47743  -5685885.08942  21430940.114    21430935.727
  22897324.074   -11872396.64543  -9235283.37242  22897325.645    22897322.629
  22650818.883    13466192.45543  10488486.14742  22650819.487    22650817.400
  20291329.382     4377004.94144   3413797.46142  20291331.017    20291327.291
  22766904.271    15963105.19643  12421252.08042  22766906.116    22766903.217
  23066877.467    -1307700.94943  -1012086.05542  23066879.422    23066876.694
  23025999.962    -9225560.03143  -7175134.40042  23026002.040    23025999.964
  22580077.043    14169493.63943  11032197.95642  22580077.977    22580075.659
  24369856.346    -7189325.59143  -5561197.97442  24369858.067    24369855.586
 04  5 14 17  6 30.0000000  0  9G21G18G17G 6G30G29G26G10G16
  21421286.707    -7361827.94443  -5725409.07042  21421287.952    21421283.543
  22878503.171   -11971301.04043  -9312351.68542  22878504.742    22878501.687
  22663935.598    13535120.92543  10542196.60842  22663936.166    22663934.067
  20292509.424     4383206.06144   3418629.50342  20292511.057    20292507.326
  22785942.993    16063153.99943  12499212.11442  22785944.852    22785941.959
  23058015.572    -1354270.53043  -1048374.00942  23058017.493    23058014.767
  23010880.464    -9305013.56943  -7237046.18342  23010882.518    23010880.403
  22597367.249    14260354.09043  11102998.27742  22597368.130    22597365.889
  24355575.240    -7264373.46343  -5619676.78842  24355576.959    24355574.339
 04  5 14 17  7  0.0000000  0  9G21G18G17G 6G30G29G26G10G16
  21411675.563    -7412334.62243  -5764764.90442  21411676.817    21411672.433
  22859727.895   -12069965.50243  -9389233.02642  22859729.463    22859726.419
  22677072.636    13604156.34343  10595990.41442  22677073.192    22677071.124
  20293772.533     4389843.88544   3423801.83242  20293774.174    20293770.445
  22805017.469    16163390.82943  12577318.66142  22805019.341    22805016.481
  23049236.235    -1400405.75843  -1084323.48442  23049238.176    23049235.526
  22995827.403    -9384117.85543  -7298685.84042  22995829.486    22995827.277
  22614714.637    14351515.13143  11174032.82042  22614715.514    22614713.293
  24341368.297    -7339031.75243  -5677852.01242  24341369.948    24341367.129
 04  5 14 17  7 30.0000000  0  9G21G18G17G 6G30G29G26G10G16
  21402105.527    -7462625.42343  -5803952.52042  21402106.797    21402102.398
  22840998.785   -12168387.42643  -9465925.38242  22841000.397    22840997.310
  22690229.856    13673297.85143  10649866.87542  22690230.425    22690228.336
  20295118.969     4396919.40944   3429315.22542  20295120.596    20295116.878
  22824127.206    16263812.76043  12655569.45142  22824129.059    22824126.208
  23040540.040    -1446104.44143  -1119932.81642  23040542.007    23040539.360
  22980841.454    -9462869.25643  -7360050.51042  22980843.550    22980841.390
  22632118.644    14442973.80743  11245299.29542  22632119.559    22632117.323
  24327235.879    -7413298.26043  -5735721.98442  24327237.421    24327234.571
 04  5 14 17  8  0.0000000  0  9G21G18G17G 6G30G29G26G10G16
  21392576.894    -7512698.77343  -5842970.69842  21392578.195    21392573.714
  22822316.520   -12266563.32343  -9542426.03442  22822318.152    22822314.946
  22703407.496    13742546.78343  10703827.05542  22703408.081    22703406.054
  20296549.131     4404434.87644   3435171.42942  20296550.760    20296547.026
  22843271.834    16364418.19943  12733963.24242  22843273.681    22843270.835
  23031927.668    -1491362.70543  -1155198.94542  23031929.585    23031926.966
  22965923.645    -9541262.74043  -7421136.28642  22965925.707    22965923.593
  22649579.101    14534728.81343  11316796.67042  22649579.992    22649577.741
  24313178.722    -7487168.88843  -5793283.45842  24313180.346    24313177.437
 04  5 14 17  8 30.0000000  0  9G21G18G17G 6G30G29G26G10G16
  21383089.279    -7562556.62843  -5881820.95742  21383090.578    21383086.077
  22803680.986   -12364493.45143  -9618735.17042  22803682.643    22803679.412
  22716605.086    13811900.22543  10757868.65342  22716605.599    22716603.605
  20298062.802     4412389.30744   3441369.68042  20298064.444    20298060.702
  22862450.403    16465202.38343  12812496.31442  22862452.284    22862449.481
  23023399.171    -1536179.94143  -1190121.43342  23023401.133    23023398.521
  22951074.291    -9619296.59143  -7481941.83742  22951076.357    22951074.149
  22667095.028    14626775.35843  11388521.22142  22667095.899    22667093.622
  24299196.946    -7560643.31943  -5850536.21642  24299198.535    24299195.679
 04  5 14 17  9  0.0000000  0  9G21G18G17G 6G30G29G26G10G16
  21373643.562    -7612194.11243  -5920499.49842  21373644.871    21373640.347
  22785093.428   -12462171.29343  -9694847.71942  22785095.129    22785091.919
  22729823.299    13881362.02143  10811994.69842  22729823.769    22729821.805
  20299660.994     4420787.73044   3447913.90442  20299662.625    20299658.892
  22881663.302    16566166.60843  12891169.66442  22881665.180    22881662.444
  23014955.830    -1580549.80743  -1224695.32542  23014957.805    23014955.162
  22936294.773    -9696963.18943  -7542461.19842  22936296.859    22936294.602
  22684666.744    14719115.05943  11460474.21442  22684667.616    22684665.323
  24285291.813    -7633715.06243  -5907475.16342  24285293.378    24285290.519
 04  5 14 17  9 30.0000000  0  9G21G18G17G 6G30G29G26G10G16
  21364238.928    -7661615.85943  -5959009.93642  21364240.208    21364235.670
  22766553.371   -12559599.67743  -9770765.88542  22766555.084    22766551.900
  22743061.107    13950927.08143  10866201.21042  22743061.637    22743059.642
  20301342.934     4429626.27044   3454801.08242  20301344.556    20301340.823
  22900909.018    16667303.20943  12969977.33042  22900910.893    22900908.184
  23006597.151    -1624474.61243  -1258922.40442  23006599.141    23006596.488
  22921584.963    -9774263.65043  -7602695.28242  22921587.031    22921584.723
  22702292.878    14811740.82343  11532650.10342  22702293.765    22702291.443
  24271462.914    -7706386.39443  -5964102.13342  24271464.457    24271461.582
 04  5 14 17 10  0.0000000  0  9G21G18G17G 6G30G29G26G10G16
  21354875.527    -7710820.82543  -5997351.45342  21354876.821    21354872.259
  22748061.571   -12656774.56243  -9846486.52642  22748063.248    22748060.083
  22756318.796    14020596.50943  10920489.03542  22756319.357    22756317.320
  20303109.071     4438907.48044   3462033.19142  20303110.709    20303107.006
  22920187.303    16768610.98643  13048918.39142  22920189.167    22920186.494
  22998323.921    -1667950.31943  -1292799.53742  22998325.928    22998323.310
  22906945.837    -9851192.69843  -7662639.93142  22906947.893    22906945.559
  22719973.144    14904651.17343  11605047.75342  22719974.045    22719971.748
  24257710.984    -7778653.44643  -6020414.09942  24257712.479    24257709.548
 04  5 14 17 10 30.0000000  0  9G21G18G17G 6G30G29G26G10G16
  21345554.165    -7759804.89443  -6035520.84842  21345555.445    21345550.889
  22729618.921   -12753691.29843  -9922006.00742  22729620.577    22729617.436
  22769596.725    14090372.34443  10974859.77342  22769597.305    22769595.261
  20304960.081     4448634.55344   3469612.72042  20304961.706    20304957.998
  22939498.083    16870089.56643  13127992.54842  22939500.011    22939497.275
  22990137.131    -1710972.17743  -1326323.03442  22990139.137    22990136.465
  22892378.473    -9927744.26943  -7722290.45642  22892380.577    22892378.224
  22737707.534    14997845.78543  11677666.90442  22737708.410    22737706.133
  24244036.870    -7850511.38743  -6076407.23142  24244038.338    24244035.414
 04  5 14 17 11  0.0000000  0  9G21G18G17G 6G30G29G26G10G16
  21336273.727    -7808573.90943  -6073522.66842  21336274.991    21336270.461
  22711224.808   -12850352.84643  -9997326.64942  22711226.455    22711223.267
  22782893.841    14160249.01443  11029309.10342  22782894.423    22782892.358
  20306895.168     4458803.51144   3477536.57542  20306896.812    20306893.102
  22958839.867    16971731.10443  13207193.67442  22958841.828    22958839.043
  22982036.245    -1753542.62043  -1359494.76542  22982038.244    22982035.486
  22877882.738   -10003919.65543  -7781647.84242  22877884.838    22877882.502
  22755494.610    15091317.29243  11750501.81242  22755495.486    22755493.212
  24230440.006    -7921962.82543  -6132083.63442  24230441.564    24230438.629
 04  5 14 17 11 30.0000000  0  9G21G18G17G 6G30G29G26G10G16
  21327034.867    -7857124.41843  -6111354.22542  21327036.097    21327031.591
  22692880.173   -12946754.50643 -10072444.77842  22692881.812    22692878.583
  22796210.600    14230228.84343  11083838.79942  22796211.217    22796209.081
  20308914.988     4469417.69744   3485807.36942  20308916.636    20308912.933
  22978212.564    17073535.15443  13286521.43742  22978214.515    22978211.709
  22974022.165    -1795657.04743  -1392311.17342  22974024.143    22974021.367
  22863459.685   -10079712.94043  -7840707.48742  22863461.805    22863459.483
  22773334.384    15185065.78543  11823552.54642  22773335.240    22773333.010
  24216921.483    -7993002.94843  -6187439.52842  24216923.061    24216920.062
 04  5 14 17 12  0.0000000  0  9G21G18G17G 6G30G29G26G10G16
  21317837.595    -7905456.28143  -6149015.40242  21317838.821    21317834.355
  22674585.396   -13042894.05643 -10147358.66042  22674587.013    22674583.786
  22809546.915    14300311.32743  11138448.49642  22809547.500    22809545.340
  20311019.669     4480477.84644   3494425.66242  20311021.327    20311017.625
  22997615.708    17175499.17543  13365973.84242  22997617.642    22997614.878
  22966095.297    -1837312.99343  -1424770.32142  22966097.289    22966094.472
  22849110.076   -10155120.27343  -7899466.39242  22849112.200    22849109.910
  22791226.333    15279088.52043  11896816.98642  22791227.213    22791224.940
  24203481.712    -8063629.19743  -6242472.91442  24203483.340    24203480.260
 04  5 14 17 12 30.0000000  0  9G21G18G17G 6G30G29G26G10G16
  21308681.698    -7953570.86443  -6186507.27342  21308682.912    21308678.463
  22656340.670   -13138770.64343 -10222067.64042  22656342.263    22656339.018
  22822902.410    14370494.78343  11193136.87242  22822903.022    22822900.827
  20313209.201     4491983.68444   3503391.24342  20313210.823    20313207.132
  23017048.481    17277618.71943  13445547.44742  23017050.406    23017047.676
  22958255.848    -1878509.51443  -1456871.47442  22958257.853    22958255.016
  22834834.308   -10230139.55743  -7957922.92242  22834836.419    22834834.122
  22809169.723    15373381.49143  11970292.00042  22809170.608    22809168.318
  24190120.877    -8133840.34943  -6297182.85042  24190122.632    24190119.599
 04  5 14 17 13  0.0000000  0  9G21G18G17G 6G30G29G26G10G16
  21299567.320    -8001467.34043  -6223829.18842  21299568.535    21299564.070
  22638146.422   -13234381.99543 -10296569.94742  22638148.005    22638144.749
  22836277.148    14440779.37443  11247904.05942  22836277.793    22836275.575
  20315483.720     4503936.30944   3512704.97042  20315485.340    20315481.643
  23036510.402    17379891.75543  13525240.63242  23036512.320    23036509.668
  22950504.437    -1919243.74943  -1488612.41142  22950506.383    22950503.600
  22820633.235   -10304766.55943  -8016073.79142  22820635.337    22820633.038
  22827164.136    15467942.63043  12043975.96542  22827165.035    22827162.717
  24176839.634    -8203633.79543  -6351567.31242  24176841.325    24176838.326
 04  5 14 17 13 30.0000000  0  9G21G18G17G 6G30G29G26G10G16
  21290494.719    -8049144.21743  -6260979.98442  21290495.923    21290491.462
  22620003.281   -13329724.70143 -10370862.91542  22620004.883    22620001.569
  22849671.204    14511165.49643  11302750.35842  22849671.894    22849669.691
  20317843.688     4516337.90044   3522368.53842  20317845.300    20317841.602
  23056001.148    17482316.36143  13605051.93642  23056003.102    23056000.503
  22942841.534    -1959512.40943  -1519990.56242  22942843.509    22942840.777
  22806507.700   -10378996.70343  -8073915.41042  22806509.779    22806507.478
  22845209.237    15562770.29843  12117867.63342  22845210.170    22845207.822
  24163638.444    -8273006.31643  -6405623.77342  24163640.159    24163637.215
 04  5 14 17 14  0.0000000  0  9G21G18G17G 6G30G29G26G10G16
  21281463.407    -8096603.99143  -6297961.60942  21281464.628    21281460.167
  22601911.131   -13424799.42043 -10444947.06642  22601912.736    22601909.387
  22863084.031    14581650.36643  11357673.59642  22863084.708    22863082.530
  20320288.643     4529186.10244   3532380.11842  20320290.239    20320286.548
  23075519.728    17584886.94543  13684976.99442  23075521.674    23075519.105
  22935267.072    -1999316.10143  -1551006.41042  22935269.034    22935266.365
  22792457.809   -10452829.33543  -8131447.28242  22792459.863    22792457.549
  22863304.068    15657858.98043  12191962.68142  22863304.987    22863302.622
  24150517.279    -8341958.36343  -6459352.59242  24150518.971    24150516.049
 04  5 14 17 14 30.0000000  0  9G21G18G17G 6G30G29G26G10G16
  21272473.676    -8143845.13743  -6334772.87642  21272474.923    21272470.496
  22583870.705   -13519602.41243 -10518819.48742  22583872.302    22583868.901
  22876515.744    14652234.52543  11412674.20742  22876516.440    22876514.296
  20322818.980     4542483.11844   3542741.42442  20322820.580    20322816.901
  23095065.807    17687601.88343  13765014.53942  23095067.735    23095065.171
  22927781.817    -2038651.26943  -1581657.16442  22927783.759    22927781.114
  22778484.483   -10526259.62943  -8188665.64742  22778486.481    22778484.176
  22881448.279    15753207.22643  12266259.98042  22881449.163    22881446.829
  24137476.779    -8410486.35843  -6512750.97142  24137478.477    24137475.487
 04  5 14 17 15  0.0000000  0  9G21G18G17G 6G30G29G26G10G16
  21263525.646    -8190867.17043  -6371413.40242  21263526.907    21263522.496
  22565882.208   -13614132.29443 -10592479.08342  22565883.793    22565880.430
  22889966.372    14722918.07243  11467752.27342  22889967.057    22889964.958
  20325434.886     4556229.94944   3553453.23142  20325436.497    20325432.821
  23114638.863    17790458.69543  13845162.64342  23114640.848    23114638.227
  22920386.162    -2077515.44643  -1611940.91442  22920388.106    22920385.497
  22764588.462   -10599283.68543  -8245567.45142  22764590.425    22764588.139
  22899641.447    15848812.85243  12340757.84442  22899642.318    22899640.030
  24124517.497    -8478587.85543  -6565817.03342  24124519.045    24124516.163
 04  5 14 17 15 30.0000000  0  9G21G18G17G 6G30G29G26G10G16
  21254618.820    -8237672.82343  -6407885.31942  21254620.080    21254615.671
  22547945.621   -13708389.25843 -10665926.03042  22547947.190    22547943.832
  22903435.364    14793697.60343  11522905.11442  22903435.958    22903433.914
  20328136.000     4570424.53144   3564513.94042  20328137.626    20328133.966
  23134237.896    17893451.70843  13925416.86242  23134239.821    23134237.192
  22913080.077    -2115909.21143  -1641858.11542  22913081.958    22913079.373
  22750769.904   -10671900.65843  -8302152.04942  22750771.858    22750769.565
  22917882.596    15944670.61043  12415452.16842  22917883.458    22917881.200
  24111639.306    -8546263.08543  -6618550.91742  24111640.906    24111637.968
 04  5 14 17 16  0.0000000  0  9G21G18G17G 6G30G29G26G10G16
  21245754.273    -8284256.24243  -6444184.07642  21245755.536    21245751.128
  22530062.495   -13802365.52143 -10739154.24542  22530064.049    22530060.677
  22916923.489    14864577.92443  11578136.48942  22916924.156    22916922.006
  20330923.448     4585072.62844   3575928.03442  20330925.059    20330921.407
  23153863.203    17996583.09043  14005778.90542  23153865.180    23153862.537
  22905864.851    -2153825.31843  -1671403.12242  22905866.730    22905864.142
  22737030.301   -10744102.18843  -8358412.93242  22737032.290    22737030.007
  22936172.119    16040782.70243  12490344.68142  22936172.971    22936170.759
  24098843.586    -8613504.81643  -6670947.03042  24098845.199    24098842.240
 04  5 14 17 16 30.0000000  0  9G21G18G17G 6G30G29G26G10G16
  21236931.593    -8330619.68943  -6480311.42242  21236932.850    21236928.422
  22512232.679   -13896061.57943 -10812164.12042  22512234.235    22512230.838
  22930430.376    14935556.62143  11633444.53242  22930431.007    22930428.897
  20333796.976     4600173.07044   3587694.60842  20333798.592    20333794.920
  23173513.974    18099847.98943  14086244.97842  23173515.896    23173513.191
  22898740.487    -2191263.88243  -1700576.00142  22898742.349    22898739.791
  22723370.077   -10815886.87843  -8414349.00042  22723372.082    22723369.816
  22954509.185    16137144.77843  12565431.97642  22954510.085    22954507.913
  24086130.329    -8680313.07243  -6723005.35942  24086131.986    24086129.073
 04  5 14 17 17  0.0000000  0  9G21G18G17G 6G30G29G26G10G16
  21228149.897    -8376767.81143  -6516270.98442  21228151.118    21228146.700
  22494455.507   -13989481.00243 -10884958.42942  22494457.033    22494453.685
  22943954.850    15006628.07543  11688824.85542  22943955.499    22943953.372
  20336755.691     4615721.26044   3599810.08242  20336757.304    20336753.625
  23193188.644    18203238.49943  14166808.93842  23193190.557    23193187.803
  22891706.579    -2228227.74843  -1729379.00742  22891708.349    22891705.789
  22709788.867   -10887256.31343  -8469961.49142  22709790.912    22709788.638
  22972892.303    16233748.55143  12640707.61742  22972893.202    22972891.023
  24073499.111    -8746690.61943  -6774728.06742  24073500.779    24073497.802
 04  5 14 17 17 30.0000000  0  9G21G18G17G 6G30G29G26G10G16
  21219409.967    -8422696.61643  -6552059.64942  21219411.180    21219406.716
  22476732.258   -14082617.18043 -10957532.02442  22476733.789    22476730.430
  22957497.723    15077796.35343  11744280.62442  22957498.347    22957496.279
  20339800.565     4631722.02144   3612278.19742  20339802.159    20339798.463
  23212887.418    18306755.75643  14247471.66842  23212889.325    23212886.570
  22884764.093    -2264710.64343  -1757807.20442  22884765.908    22884763.336
  22696288.118   -10958202.86143  -8525244.45942  22696290.170    22696287.944
  22991321.789    16330595.90543  12716173.05242  22991322.673    22991320.507
  24060950.980    -8812631.06043  -6826110.18742  24060952.640    24060949.697
 04  5 14 17 18  0.0000000  0  9G21G18G17G 6G30G29G26G10G16
  21210712.439    -8468402.43643  -6587674.56042  21210713.664    21210709.157
  22459063.857   -14175465.31843 -11029881.18442  22459065.399    22459062.000
  22971059.543    15149063.84943  11799813.69842  22971060.115    22971058.032
  20342932.290     4648179.21844   3625101.97442  20342933.871    20342930.149
  23232610.382    18410400.34343  14328233.60842  23232612.337    23232609.550
  22877914.127    -2300707.20243  -1785856.45542  22877915.999    22877913.389
  22682869.190   -11028719.78143  -8580192.65842  22682871.218    22682868.970
  23009797.651    16427687.23343  12791828.59842  23009798.567    23009796.428
  24048487.105    -8878129.27843  -6877147.72442  24048488.692    24048485.605
 04  5 14 17 18 30.0000000  0  9G21G18G17G 6G30G29G26G10G16
  21202055.996    -8513892.38643  -6623121.26342  21202057.226    21202052.675
  22441449.229   -14268030.73443 -11102010.04042  22441450.799    22441447.326
  22984638.753    15220422.66243  11855417.93242  22984639.316    22984637.163
  20346149.484     4665085.76044   3638275.90442  20346151.094    20346147.362
  23252355.530    18514161.60643  14409086.46742  23252357.472    23252354.766
  22871155.649    -2336223.31043  -1813531.31942  22871157.488    22871154.853
  22669531.153   -11098811.60643  -8634809.62542  22669533.153    22669530.882
  23028318.030    16525012.13043  12867666.13842  23028318.887    23028316.778
  24036106.284    -8943190.68843  -6927844.88342  24036107.876    24036104.782
 04  5 14 17 19  0.0000000  0  9G21G18G17G 6G30G29G26G10G16
  21193442.103    -8559158.82643  -6658393.80042  21193443.317    21193438.729
  22423890.183   -14360303.97043 -11173911.21442  22423891.772    22423888.305
  22998236.674    15291879.94743  11911098.89142  22998237.217    22998235.066
  20349453.747     4682449.81844   3651806.34042  20349455.362    20349451.643
  23272123.824    18618044.23443  14490033.87242  23272125.772    23272123.101
  22864490.431    -2371249.39443  -1840824.35742  22864492.229    22864489.582
  22656276.129   -11168467.26743  -8689086.72142  22656278.113    22656275.786
  23046883.741    16622575.51843  12943689.52542  23046884.616    23046882.501
  24023810.480    -9007805.45543  -6978194.01542  24023811.973    24023809.035
 04  5 14 17 19 30.0000000  0  9G21G18G17G 6G30G29G26G10G16
  21184869.403    -8604208.62043  -6693497.52842  21184870.628    21184866.025
  22406385.712   -14452290.46043 -11245588.95542  22406387.294    22406383.871
  23011851.885    15363428.26843  11966850.79442  23011852.453    23011850.299
  20352843.843     4700264.80744   3665688.14242  20352845.468    20352841.731
  23291913.305    18722038.24043  14571068.07642  23291915.239    23291912.610
  22857917.406    -2405790.56143  -1867739.53842  22857919.235    22857916.599
  22643103.348   -11237690.47043  -8743026.82942  22643105.337    22643103.005
  23065493.033    16720367.76443  13019891.23942  23065493.897    23065491.758
  24011598.687    -9071978.80543  -7028199.19242  24011600.167    24011597.178
 04  5 14 17 20  0.0000000  0 10G21G18G17G 6G30G29G26G10G15G16
  21176336.964    -8649046.73343  -6728436.29942  21176338.204    21176333.603
  22388935.269   -14543992.79743 -11317045.27442  22388936.866    22388933.477
  23025483.435    15435062.13643  12022669.35642  23025483.955    23025481.813
  20356318.947     4718526.57944   3679918.08342  20356320.577    20356316.843
  23311722.504    18826135.84043  14652183.00142  23311724.411    23311721.798
  22851436.098    -2439849.70043  -1894279.09642  22851437.994    22851435.365
  22630012.576   -11306482.76643  -8796631.17642  22630014.588    22630012.251
  23084144.421    16818381.51143  13096265.55442  23084145.343    23084143.217
  24712309.433    -5192282.23653  -3738899.85252  24712310.469    24712310.668
  23999470.339    -9135713.43943  -7077862.50042  23999471.774    23999468.945
 04  5 14 17 20 30.0000000  0 10G21G18G17G 6G30G29G26G10G15G16
  21167848.684    -8693652.81843  -6763194.27642  21167849.908    21167845.324
  22371543.049   -14635389.00043 -11388263.05642  22371544.673    22371541.301
  23039134.956    15506801.35343  12078570.00642  23039135.456    23039133.383
  20359882.931     4737255.38744   3694511.95242  20359884.562    20359880.841
  23331554.642    18930354.22843  14733392.05542  23331556.591    23331553.999
  22845050.823    -2473404.73043  -1920425.86042  22845052.686    22845050.026
  22617008.271   -11374820.83243  -8849881.56942  22617010.272    22617007.932
  23102841.223    16916633.84843  13172825.78142  23102842.165    23102840.036
  24695816.466    -5278953.23043  -3806435.60842  24695817.463    24695817.627
  23987429.726    -9198987.21543  -7127166.70142  23987431.095    23987428.337
 04  5 14 17 21  0.0000000  0 10G21G18G17G 6G30G29G26G10G15G16
  21159402.510    -8738037.75044  -6797779.92842  21159403.719    21159399.145
  22354207.303   -14726488.61243 -11459249.72242  22354208.933    22354205.592
  23052804.288    15578634.20343  12134543.62042  23052804.774    23052802.743
  20363533.824     4756440.83144   3709461.64242  20363535.442    20363531.728
  23351407.071    19034679.12643  14814684.09642  23351408.982    23351406.494
  22838759.602    -2506465.35343  -1946187.36142  22838761.453    22838758.721
  22604088.852   -11442712.66343  -8902784.25742  22604090.890    22604088.463
  23121580.827    17015110.96643  13249561.15842  23121581.756    23121579.578
  24679334.874    -5365564.58543  -3873924.91342  24679335.968    24679336.105
  23975474.982    -9261809.63143  -7176119.19542  23975476.388    23975473.671
 04  5 14 17 21 30.0000000  0 10G21G18G17G 6G30G29G26G10G15G16
  21150997.234    -8782207.73943  -6832198.08842  21150998.438    21150993.859
  22336927.202   -14817295.85243 -11530008.56842  22336928.799    22336925.527
  23066490.207    15650553.97743  12190584.96842  23066490.675    23066488.647
  20367270.471     4776076.96844   3724762.51542  20367272.092    20367268.367
  23371278.121    19139101.75343  14896052.28242  23371280.019    23371277.585
  22832561.674    -2539035.48543  -1971566.67142  22832563.555    22832560.782
  22591253.824   -11510160.85743  -8955341.25742  22591255.846    22591253.428
  23140361.505    17113804.13143  13326464.88442  23140362.456    23140360.283
  24662863.487    -5452121.71943  -3941371.95242  24662864.587    24662864.931
  23963605.403    -9324184.53743  -7224722.98242  23963606.846    23963604.030
 04  5 14 17 22  0.0000000  0 10G21G18G17G 6G30G29G26G10G15G16
  21142634.686    -8826153.19643  -6866441.28942  21142635.900    21142631.304
  22319704.882   -14907799.67143 -11600530.97642  22319706.444    22319703.205
  23080194.369    15722569.69443  12246701.07342  23080194.870    23080192.807
  20371094.781     4796173.69044   3740422.28242  20371096.396    20371092.652
  23391168.958    19243628.19543  14977501.36942  23391170.807    23391168.443
  22826459.155    -2571104.31543  -1996555.34842  22826461.033    22826458.264
  22578505.540   -11577153.19743  -9007543.04342  22578507.499    22578505.169
  23159184.568    17212719.84443  13403542.03042  23159185.471    23159183.362
  24646404.225    -5538615.23143  -4008769.40742  24646405.266    24646405.716
  23951823.100    -9386100.89143  -7272969.46142  23951824.549    23951821.671
 04  5 14 17 22 30.0000000  0 10G21G18G17G 6G30G29G26G10G15G16
  21134314.177    -8869877.78943  -6900512.39242  21134315.396    21134310.776
  22302539.936   -14998002.02943 -11670818.48742  22302541.487    22302538.255
  23093915.950    15794676.86243  12302888.43442  23093916.400    23093914.345
  20375006.031     4816727.45844   3756438.19842  20375007.670    20375003.922
  23411078.231    19348251.89643  15059026.23942  23411080.099    23411077.721
  22820451.672    -2602673.79543  -2021154.91242  22820453.540    22820450.772
  22565843.941   -11643690.23543  -9059390.04942  22565845.891    22565843.581
  23178048.715    17311851.39443  13480787.34942  23178049.594    23178047.525
  24629956.400    -5625048.86643  -4076120.20642  24629957.411    24629957.719
  23940127.676    -9447560.45643  -7320859.99342  23940129.211    23940126.285
 04  5 14 17 23  0.0000000  0 10G21G18G17G 6G30G29G26G10G15G16
  21126035.397    -8913382.98143  -6934412.52642  21126036.627    21126031.987
  22285432.477   -15087902.31943 -11740870.61942  22285434.002    22285430.748
  23107654.616    15866874.00743  12359145.91342  23107655.044    23107652.973
  20379004.110     4837737.44044   3772809.60942  20379005.742    20379001.999
  23431005.203    19452968.46643  15140623.47342  23431007.094    23431004.713
  22814539.351    -2633743.37843  -2045364.94942  22814541.191    22814538.366
  22553269.356   -11709770.01743  -9110880.75042  22553271.332    22553268.962
  23196953.240    17411195.01243  13558197.91542  23196954.096    23196952.018
  24613519.822    -5711423.45743  -4143425.00942  24613520.803    24613521.075
  23928519.328    -9508562.71243  -7368394.17542  23928520.797    23928517.959
 04  5 14 17 23 30.0000000  0 10G21G18G17G 6G30G29G26G10G15G16
  21117798.503    -8956668.17843  -6968141.23642  21117799.735    21117795.060
  22268382.872   -15177498.55043 -11810685.83042  22268384.393    22268381.106
  23121410.331    15939160.71443  12415473.19442  23121410.751    23121408.751
  20383089.091     4859204.15944   3789536.91942  20383090.731    20383086.998
  23450949.321    19557775.22743  15222290.98642  23450951.160    23450948.874
  22808722.461    -2664311.25743  -2069184.04742  22808724.338    22808721.472
  22540782.425   -11775389.19243  -9162012.53442  22540784.411    22540782.014
  23215897.587    17510748.25943  13635771.84442  23215898.462    23215896.398
  24597094.522    -5797738.62643  -4210683.52042  24597095.549    24597095.687
  23916998.394    -9569105.39443  -7415570.25842  23916999.885    23916997.020
 04  5 14 17 24  0.0000000  0 10G21G18G17G 6G30G29G26G10G15G16
  21109603.862    -8999731.35043  -7001696.94142  21109605.076    21109600.402
  22251391.755   -15266787.22743 -11880261.38542  22251393.302    22251389.983
  23135183.345    16011538.36943  12471871.33542  23135183.807    23135181.734
  20387261.399     4881129.75644   3806621.79342  20387263.029    20387259.327
  23470910.424    19662671.16343  15304027.97442  23470912.244    23470909.995
  22803001.764    -2694373.78943  -2092609.37642  22803003.624    22803000.736
  22528384.129   -11840542.61643  -9212781.40342  22528386.146    22528383.665
  23234881.730    17610510.10043  13713508.30842  23234882.573    23234880.459
  24580680.882    -5883992.36843  -4277894.14442  24580681.869    24580682.043
  23905565.548    -9629184.84543  -7462385.38842  23905567.080    23905564.206
 04  5 14 17 24 30.0000000  0 10G21G18G17G 6G30G29G26G10G15G16
  21101452.020    -9042569.47143  -7035077.28142  21101453.252    21101448.552
  22234460.108   -15355763.39443 -11949593.42742  22234461.654    22234458.302
  23148974.153    16084009.34243  12528342.18542  23148974.559    23148972.589
  20391521.646     4903517.62144   3824066.87642  20391523.289    20391519.596
  23490888.458    19767656.10243  15385834.32042  23490890.248    23490888.093
  22797378.037    -2723926.51443  -2115637.44042  22797379.948    22797377.035
  22516075.561   -11905224.37643  -9263182.74042  22516077.612    22516075.108
  23253905.605    17710480.85943  13791407.56142  23253906.420    23253904.323
  24564279.604    -5970181.59043  -4345054.50442  24564280.580    24564280.798
  23894221.782    -9688796.21443  -7508835.76242  23894223.391    23894220.431
 04  5 14 17 25  0.0000000  0 10G21G18G17G 6G30G29G26G10G15G16
  21093341.213    -9085191.88443  -7068289.53642  21093342.457    21093337.781
  22217586.421   -15444435.00543 -12018688.14942  22217587.973    22217584.578
  23162780.834    16156563.81343  12584878.09942  23162781.256    23162779.272
  20395868.118     4926358.48444   3841864.93942  20395869.759    20395866.076
  23510881.099    19872717.79143  15467700.48542  23510882.913    23510880.755
  22791849.868    -2752977.15143  -2138274.26342  22791851.799    22791848.878
  22503855.489   -11969440.86343  -9313221.51142  22503857.602    22503855.094
  23272966.925    17810648.37443  13869460.12542  23272967.693    23272965.589
  24547888.811    -6056315.33443  -4412171.62242  24547889.856    24547890.070
  23882965.704    -9747947.24943  -7554927.45342  23882967.281    23882964.357
 04  5 14 17 25 30.0000000  0 10G21G18G17G 6G30G29G26G10G15G16
  21085272.713    -9127592.14343  -7101328.68442  21085273.939    21085269.270
  22200772.278   -15532793.91843 -12087539.20642  22200773.809    22200770.395
  23176604.634    16229208.02843  12641483.94242  23176605.006    23176603.065
  20400302.103     4949659.27444   3860021.39642  20400303.755    20400300.094
  23530889.010    19977859.72643  15549629.17442  23530890.833    23530888.708
  22786418.771    -2781517.41543  -2160513.39242  22786420.748    22786417.797
  22491725.819   -12033182.30543  -9362890.12942  22491727.967    22491725.479
  23292066.375    17911016.45543  13947668.97742  23292067.148    23292065.047
  24531509.918    -6142386.84643  -4479240.25442  24531510.955    24531511.104
  23871798.825    -9806629.54243  -7600653.87442  23871800.417    23871797.437
 04  5 14 17 26  0.0000000  0 10G21G18G17G 6G30G29G26G10G15G16
  21077247.182    -9169766.67544  -7134191.94542  21077248.406    21077243.730
  22184018.607   -15620834.78043 -12156142.43242  22184020.166    22184016.731
  23190445.916    16301944.73743  12698161.87542  23190446.383    23190444.467
  20404824.313     4973423.60044   3878539.04142  20404825.953    20404822.301
  23550912.350    20083082.52143  15631620.86242  23550914.128    23550912.034
  22781085.752    -2809542.55043  -2182351.13742  22781087.693    22781084.761
  22479687.783   -12096442.28443  -9412183.57342  22479689.909    22479687.438
  23311204.125    18011585.78843  14026034.65342  23311204.901    23311202.806
  24515143.447    -6228392.69643  -4546257.71142  24515144.481    24515144.749
  23860722.202    -9864837.78443  -7646010.91142  23860723.729    23860720.750
 04  5 14 17 26 30.0000000  0 10G21G18G17G 6G30G29G26G10G15G16
  21069263.250    -9211722.53844  -7166884.81342  21069264.470    21069259.800
  22167324.417   -15708563.22043 -12224502.21442  22167325.970    22167322.551
  23204303.430    16374766.16143  12754905.79842  23204303.828    23204301.921
  20409433.385     4997644.35944   3897412.35342  20409435.003    20409431.381
  23570948.989    20188375.74943  15713667.43242  23570950.775    23570948.794
  22775849.686    -2837058.27343  -2203791.93242  22775851.584    22775848.670
  22467740.554   -12159225.09543  -9461105.19842  22467742.670    22467740.197
  23330378.231    18112346.37043  14104549.34242  23330379.034    23330376.929
  24498788.199    -6314340.00843  -4613229.56642  24498789.324    24498789.446
  23849734.633    -9922577.78343  -7691003.06942  23849736.180    23849733.230
 04  5 14 17 27  0.0000000  0 10G21G18G17G 6G30G29G26G10G15G16
  21061321.668    -9253455.72844  -7199404.16842  21061322.906    21061318.231
  22150690.768   -15795973.71543 -12292614.25942  22150692.323    22150688.834
  23218177.727    16447675.88243  12811718.53842  23218178.121    23218176.268
  20414130.129     5022325.87944   3916644.69342  20414131.750    20414128.121
  23590999.303    20293740.48743  15795769.72742  23591001.080    23590999.133
  22770711.598    -2864058.93743  -2224831.37542  22770713.521    22770710.582
  22455885.505   -12221523.67843  -9509649.50342  22455887.564    22455885.109
  23349589.021    18213299.55643  14183214.12042  23349589.819    23349587.729
  24482444.889    -6400224.39743  -4680152.37742  24482446.017    24482446.014
  23838837.361    -9979843.50743  -7735625.67642  23838838.835    23838835.957
 04  5 14 17 27 30.0000000  0 10G21G18G17G 6G30G29G26G10G15G16
  21053422.705    -9294964.93744  -7231748.99142  21053423.957    21053419.312
  22134118.161   -15883063.41643 -12360476.33142  22134119.725    22134116.214
  23232068.839    16520674.29143  12868600.36642  23232069.301    23232067.466
  20418914.742     5047469.12944   3936236.82042  20418916.337    20418912.747
  23611062.831    20399174.69143  15877926.14542  23611064.633    23611062.676
  22765671.996    -2890542.16743  -2245467.63042  22765673.888    22765670.958
  22444123.323   -12283334.12243  -9557813.44242  22444125.366    22444122.934
  23368836.106    18314443.55143  14262027.56842  23368836.926    23368834.836
  24466113.690    -6486045.06543  -4747025.53642  24466114.805    24466114.747
  23828030.823   -10036632.47243  -7779876.77942  23828032.285    23828029.391
 04  5 14 17 28  0.0000000  0 10G21G18G17G 6G30G29G26G10G15G16
  21045565.763    -9336253.43244  -7263921.82942  21045567.002    21045562.367
  22117606.314   -15969833.85543 -12428089.61642  22117607.853    22117604.350
  23245976.201    16593758.03943  12925548.71742  23245976.667    23245974.885
  20423786.730     5073071.46544   3956186.67942  20423788.334    20423784.710
  23631138.487    20504672.55143  15960132.16842  23631140.251    23631138.365
  22760730.556    -2916509.54543  -2265701.93242  22760732.457    22760729.519
  22432454.073   -12344656.39143  -9605596.97842  22432456.084    22432453.642
  23388118.378    18415772.44743  14340985.10242  23388119.166    23388117.151
  24449794.087    -6571804.82643  -4813851.23642  24449795.021    24449795.132
  23817314.693   -10092946.03743  -7823757.44342  23817316.206    23817313.270
 04  5 14 17 28 30.0000000  0 10G21G18G17G 6G30G29G26G10G15G16
  21037751.627    -9377317.05644  -7295919.44642  21037752.873    21037748.204
  22101156.256   -16056279.24443 -12495449.61942  22101157.814    22101154.313
  23259900.503    16666930.61543  12982566.27242  23259900.963    23259899.255
  20428746.902     5099137.15944   3976497.59542  20428748.487    20428744.864
  23651226.411    20610235.09143  16042388.59442  23651228.236    23651226.402
  22755888.355    -2941955.27543  -2285529.74142  22755890.277    22755887.323
  22420879.015   -12405483.40743  -9652994.59942  22420881.054    22420878.593
  23407436.171    18517287.91543  14420088.02042  23407437.003    23407434.988
  24433486.956    -6657499.08843  -4880625.89042  24433487.938    24433487.895
  23806690.279   -10148778.18443  -7867262.97842  23806691.718    23806688.752
 04  5 14 17 29  0.0000000  0 10G21G18G17G 6G30G29G26G10G15G16
  21029979.267    -9418161.02544  -7327745.90242  21029980.508    21029975.857
  22084767.324   -16142403.49843 -12562559.39142  22084768.895    22084765.381
  23273840.610    16740186.25443  13039648.54342  23273841.065    23273839.393
  20433794.162     5125660.68044   3997165.27442  20433795.765    20433792.130
  23671325.081    20715853.82443  16124688.81542  23671326.876    23671325.057
  22751144.662    -2966883.54843  -2304954.34042  22751146.550    22751143.610
  22409397.745   -12465817.81043  -9700008.37142  22409399.759    22409397.315
  23426787.884    18618981.64543  14499329.84242  23426788.755    23426786.699
  24417191.308    -6743133.19743  -4947353.68342  24417192.330    24417192.188
  23796156.633   -10204132.87143  -7910396.47842  23796158.077    23796155.019
 04  5 14 17 29 30.0000000  0 10G21G18G17G 6G30G29G26G10G15G16
  21022249.283    -9458782.29643  -7359398.82642  21022250.522    21022245.867
  22068440.487   -16228201.49843 -12629414.94042  22068442.048    22068438.505
  23287797.030    16813527.54443  13096797.56342  23287797.496    23287795.828
  20438929.159     5152645.33244   4018192.26842  20438930.784    20438927.150
  23691434.439    20821528.82843  16207032.86242  23691436.215    23691434.367
  22746500.198    -2991289.97543  -2323972.30042  22746502.130    22746499.184
  22398011.401   -12525653.46043  -9746633.50142  22398013.395    22398010.910
  23446173.610    18720854.14543  14578710.95442  23446174.473    23446172.471
  24400907.656    -6828703.87843  -5014032.06042  24400908.769    24400908.576
  23785714.744   -10259005.29743  -7953154.17142  23785716.171    23785713.094
 04  5 14 17 30  0.0000000  0 10G21G18G17G 6G30G29G26G10G15G16
  21014562.678    -9499175.62744  -7390874.13942  21014563.915    21014559.269
  22052176.813   -16313667.60943 -12696011.88042  22052178.371    22052174.790
  23301770.436    16886958.35743  13154016.32842  23301770.983    23301769.321
  20444152.860     5180095.81444   4039582.23442  20444154.454    20444150.813
  23711554.835    20927261.88543  16289422.13742  23711556.600    23711554.818
  22741956.207    -3015168.56843  -2342578.96942  22741958.142    22741955.219
  22386721.350   -12584982.92543  -9792864.20742  22386723.375    22386720.858
  23465593.728    18822907.28443  14658232.83442  23465594.556    23465592.574
  24384636.937    -6914206.44943  -5080657.34742  24384638.027    24384637.869
  23775365.759   -10313389.23743  -7995531.23442  23775367.184    23775364.154
 04  5 14 17 30 30.0000000  0 10G21G18G17G 6G30G29G26G10G15G16
  21006917.939    -9539349.09143  -7422178.12242  21006919.153    21006914.509
  22035975.183   -16398807.85943 -12762354.90142  22035976.731    22035973.085
  23315759.370    16960470.49743  13211298.47242  23315759.918    23315758.251
  20449463.710     5208004.50544   4061329.25342  20449465.304    20449461.699
  23731684.325    21033042.44543  16371848.44642  23731686.050    23731684.259
  22737511.507    -3038525.49343  -2360779.13242  22737513.430    22737510.518
  22375526.740   -12643811.00743  -9838704.22142  22375528.756    22375526.236
  23485046.236    18925130.81243  14737887.48442  23485047.091    23485045.113
  24368377.716    -6999648.42143  -5147235.40842  24368378.872    24368378.728
  23765108.517   -10367290.92143  -8037532.51842  23765109.932    23765106.961
 04  5 14 17 31  0.0000000  0 10G21G18G17G 6G30G29G26G10G15G16
  20999315.423    -9579300.54344  -7453309.11442  20999316.624    20999311.978
  22019836.396   -16483617.65943 -12828440.42842  22019837.954    22019834.292
  23329764.213    17034066.30343  13268645.80642  23329764.813    23329763.087
  20454862.206     5236373.78444   4083435.16442  20454863.806    20454860.213
  23751822.735    21138869.64943  16454311.09842  23751824.470    23751822.594
  22733166.730    -3061357.26543  -2378570.10242  22733168.654    22733165.756
  22364428.517   -12702132.49843  -9884149.49542  22364430.511    22364427.967
  23504531.094    19027524.28943  14817674.57142  23504531.963    23504529.947
  24352130.541    -7085027.40443  -5213764.39742  24352131.703    24352131.585
  23754943.846   -10420706.23543  -8079154.80942  23754945.270    23754942.283
 04  5 14 17 31 30.0000000  0 10G21G18G17G 6G30G29G26G10G15G16
  20991755.668    -9619027.25143  -7484264.98742  20991756.873    20991752.234
  22003761.121   -16568093.39443 -12894265.63642  22003762.714    22003759.061
  23343785.273    17107747.39743  13326059.60542  23343785.942    23343784.183
  20460348.830     5265206.18244   4105901.95242  20460350.423    20460346.834
  23771969.849    21244743.16843  16536809.84842  23771971.663    23771969.749
  22728922.587    -3083660.14643  -2395948.93842  22728924.547    22728921.594
  22353427.671   -12759942.19543  -9929195.96142  22353429.663    22353427.110
  23524048.282    19130087.47143  14897593.86942  23524049.077    23524047.129
  24335895.818    -7170340.89043  -5280242.35142  24335896.948    24335896.868
  23744872.460   -10473631.37243  -8120395.14542  23744873.897    23744870.911
